Time,TemperatureF,DewpointF,PressureIn,WindDirection,WindDirectionDegrees,WindSpeedMPH,WindSpeedGustMPH,Humidity,HourlyPrecipIn,Conditions,Clouds,dailyrainin,SoftwareType,DateUTC
2013-04-16 00:00:00,73.7,69.0,30.07,East,96,1.9,1.9,86,0.00,,,1.32,TxWx,2013-04-16 04:00:00,
2013-04-16 00:01:00,73.9,69.0,30.07,East,96,3.1,3.1,86,0.00,,,1.32,TxWx,2013-04-16 04:01:00,
2013-04-16 00:02:00,73.8,69.0,30.07,SSE,163,1.2,1.2,86,0.00,,,0.00,TxWx,2013-04-16 04:02:00,
2013-04-16 00:05:00,73.8,69.0,30.07,East,96,1.2,1.2,86,0.00,,,0.00,TxWx,2013-04-16 04:05:00,
2013-04-16 00:06:00,73.9,69.0,30.07,SE,141,1.9,1.9,86,0.00,,,0.00,TxWx,2013-04-16 04:06:00,
2013-04-16 00:07:00,73.9,69.0,30.07,ESE,118,0.6,0.6,86,0.00,,,0.00,TxWx,2013-04-16 04:07:00,
2013-04-16 00:08:00,74.0,69.0,30.07,WSW,253,0.6,0.6,85,0.00,,,0.00,TxWx,2013-04-16 04:08:00,
2013-04-16 00:11:00,73.9,69.0,30.07,East,96,1.2,1.9,85,0.00,,,0.00,TxWx,2013-04-16 04:11:00,
2013-04-16 00:12:00,73.9,69.0,30.07,NE,51,1.9,2.5,85,0.00,,,0.00,TxWx,2013-04-16 04:12:00,
2013-04-16 00:13:00,74.0,69.0,30.07,ENE,73,1.9,1.9,85,0.00,,,0.00,TxWx,2013-04-16 04:13:00,
2013-04-16 00:14:00,74.1,69.0,30.07,NE,51,3.1,3.1,85,0.00,,,0.00,TxWx,2013-04-16 04:14:00,
2013-04-16 00:17:00,74.2,69.0,30.07,NNE,28,1.9,2.5,85,0.00,,,0.00,TxWx,2013-04-16 04:17:00,
2013-04-16 00:18:00,74.2,69.0,30.07,WNW,298,1.2,1.2,85,0.00,,,0.00,TxWx,2013-04-16 04:18:00,
2013-04-16 00:19:00,74.3,69.0,30.07,NW,321,1.9,1.9,85,0.00,,,0.00,TxWx,2013-04-16 04:19:00,
2013-04-16 00:20:00,74.3,69.0,30.07,NW,321,0.6,1.2,85,0.00,,,0.00,TxWx,2013-04-16 04:20:00,
2013-04-16 00:22:00,74.3,69.0,30.07,West,276,0.6,0.6,85,0.00,,,0.00,TxWx,2013-04-16 04:22:00,
2013-04-16 00:25:00,74.3,69.0,30.07,South,186,0.6,0.6,84,0.00,,,0.00,TxWx,2013-04-16 04:25:00,
2013-04-16 00:28:00,74.3,69.0,30.07,NW,321,1.9,1.9,84,0.00,,,0.00,TxWx,2013-04-16 04:28:00,
2013-04-16 00:29:00,74.3,69.0,30.07,East,96,1.2,1.2,84,0.00,,,0.00,TxWx,2013-04-16 04:29:00,
2013-04-16 00:31:00,74.4,69.0,30.07,NW,321,1.2,1.2,85,0.00,,,0.00,TxWx,2013-04-16 04:31:00,
2013-04-16 00:33:00,74.4,69.0,30.07,WSW,253,0.6,1.2,84,0.00,,,0.00,TxWx,2013-04-16 04:33:00,
2013-04-16 00:35:00,74.4,69.0,30.07,North,6,1.9,1.9,84,0.00,,,0.00,TxWx,2013-04-16 04:35:00,
2013-04-16 00:36:00,74.4,69.0,30.07,West,276,1.2,1.2,84,0.00,,,0.00,TxWx,2013-04-16 04:36:00,
2013-04-16 00:37:00,74.4,69.0,30.07,WNW,298,0.6,1.2,84,0.00,,,0.00,TxWx,2013-04-16 04:37:00,
2013-04-16 00:39:00,74.5,69.0,30.07,SW,231,0.6,1.2,84,0.00,,,0.00,TxWx,2013-04-16 04:39:00,
2013-04-16 00:41:00,74.5,69.0,30.07,NNE,28,2.5,2.5,84,0.00,,,0.00,TxWx,2013-04-16 04:41:00,
2013-04-16 00:43:00,74.5,69.0,30.06,NNW,343,1.9,1.9,84,0.00,,,0.00,TxWx,2013-04-16 04:43:00,
2013-04-16 00:44:00,74.4,69.0,30.07,NW,321,1.9,1.9,84,0.00,,,0.00,TxWx,2013-04-16 04:44:00,
2013-04-16 00:47:00,74.5,69.0,30.07,WNW,298,1.2,1.9,85,0.00,,,0.00,TxWx,2013-04-16 04:47:00,
2013-04-16 00:49:00,74.6,70.0,30.07,NNE,28,3.1,3.7,85,0.00,,,0.00,TxWx,2013-04-16 04:49:00,
2013-04-16 00:51:00,74.7,70.0,30.07,NNW,343,3.1,3.7,85,0.00,,,0.00,TxWx,2013-04-16 04:51:00,
2013-04-16 00:52:00,74.7,70.0,30.07,NNW,343,2.5,3.1,85,0.00,,,0.00,TxWx,2013-04-16 04:52:00,
2013-04-16 00:53:00,74.7,70.0,30.07,NNW,343,2.5,2.5,85,0.00,,,0.00,TxWx,2013-04-16 04:53:00,
2013-04-16 00:55:00,74.6,70.0,30.07,NNW,343,2.5,3.1,86,0.00,,,0.00,TxWx,2013-04-16 04:55:00,
2013-04-16 00:57:00,74.6,70.0,30.07,WNW,298,2.5,2.5,86,0.00,,,0.00,TxWx,2013-04-16 04:57:00,
2013-04-16 00:58:00,74.6,70.0,30.07,West,276,2.5,2.5,86,0.00,,,0.00,TxWx,2013-04-16 04:58:00,
2013-04-16 00:59:00,74.7,70.0,30.07,NE,51,2.5,2.5,86,0.00,,,0.00,TxWx,2013-04-16 04:59:00,
2013-04-16 01:01:00,74.8,71.0,30.07,North,6,3.1,3.1,86,0.00,,,0.00,TxWx,2013-04-16 05:01:00,
2013-04-16 01:04:00,74.7,71.0,30.07,North,6,3.1,3.7,86,0.00,,,0.00,TxWx,2013-04-16 05:04:00,
2013-04-16 01:05:00,74.7,71.0,30.06,NNE,28,5.0,5.0,87,0.00,,,0.00,TxWx,2013-04-16 05:05:00,
2013-04-16 01:07:00,74.5,71.0,30.06,NNW,343,5.0,5.6,87,0.00,,,0.00,TxWx,2013-04-16 05:07:00,
2013-04-16 01:09:00,74.6,71.0,30.07,NE,51,2.5,3.7,87,0.00,,,0.00,TxWx,2013-04-16 05:09:00,
2013-04-16 01:10:00,74.7,71.0,30.06,ENE,73,1.9,1.9,87,0.00,,,0.00,TxWx,2013-04-16 05:10:00,
2013-04-16 01:11:00,74.7,71.0,30.07,NW,321,3.1,3.7,87,0.00,,,0.00,TxWx,2013-04-16 05:11:00,
2013-04-16 01:12:00,74.7,71.0,30.07,WNW,298,3.1,3.1,87,0.00,,,0.00,TxWx,2013-04-16 05:12:00,
2013-04-16 01:13:00,74.8,71.0,30.07,NNW,343,1.9,1.9,87,0.00,,,0.00,TxWx,2013-04-16 05:13:00,
2013-04-16 01:15:00,74.8,71.0,30.07,NE,51,3.7,3.7,87,0.00,,,0.00,TxWx,2013-04-16 05:15:00,
2013-04-16 01:16:00,74.8,71.0,30.07,NE,51,3.7,3.7,87,0.00,,,0.00,TxWx,2013-04-16 05:16:00,
2013-04-16 01:17:00,74.8,71.0,30.07,NNW,343,3.7,4.3,87,0.00,,,0.00,TxWx,2013-04-16 05:17:00,
2013-04-16 01:18:00,74.9,71.0,30.07,NNE,28,4.3,4.3,87,0.00,,,0.00,TxWx,2013-04-16 05:18:00,
2013-04-16 01:21:00,75.0,71.0,30.06,NNE,28,6.2,6.2,87,0.00,,,0.00,TxWx,2013-04-16 05:21:00,
2013-04-16 01:24:00,75.0,71.0,30.06,NNE,28,4.3,4.3,87,0.00,,,0.00,TxWx,2013-04-16 05:24:00,
2013-04-16 01:25:00,75.1,71.0,30.06,NNE,28,3.1,3.1,87,0.00,,,0.00,TxWx,2013-04-16 05:25:00,
2013-04-16 01:27:00,75.0,71.0,30.06,North,6,3.1,4.3,87,0.00,,,0.00,TxWx,2013-04-16 05:27:00,
2013-04-16 01:29:00,75.1,71.0,30.06,ENE,73,2.5,2.5,87,0.00,,,0.00,TxWx,2013-04-16 05:29:00,
2013-04-16 01:32:00,75.1,71.0,30.07,East,96,3.1,3.1,87,0.00,,,0.00,TxWx,2013-04-16 05:32:00,
2013-04-16 01:33:00,75.1,71.0,30.06,NE,51,3.1,4.3,87,0.00,,,0.00,TxWx,2013-04-16 05:33:00,
2013-04-16 01:34:00,75.1,71.0,30.06,NNE,28,3.1,3.7,88,0.00,,,0.00,TxWx,2013-04-16 05:34:00,
2013-04-16 01:35:00,75.2,71.0,30.06,NE,51,4.3,5.0,88,0.00,,,0.00,TxWx,2013-04-16 05:35:00,
2013-04-16 01:36:00,75.2,71.0,30.06,NNE,28,5.6,5.6,88,0.00,,,0.00,TxWx,2013-04-16 05:36:00,
2013-04-16 01:38:00,75.1,71.0,30.06,WNW,298,3.1,3.1,88,0.00,,,0.00,TxWx,2013-04-16 05:38:00,
2013-04-16 01:40:00,75.1,71.0,30.06,ENE,73,5.6,5.6,87,0.00,,,0.00,TxWx,2013-04-16 05:40:00,
2013-04-16 01:41:00,75.1,71.0,30.06,ESE,118,4.3,4.3,87,0.00,,,0.00,TxWx,2013-04-16 05:41:00,
2013-04-16 01:43:00,75.1,71.0,30.06,North,6,5.0,6.2,87,0.00,,,0.00,TxWx,2013-04-16 05:43:00,
2013-04-16 01:45:00,75.2,71.0,30.06,NE,51,6.2,6.8,87,0.00,,,0.00,TxWx,2013-04-16 05:45:00,
2013-04-16 01:46:00,75.2,71.0,30.06,ENE,73,5.6,6.2,87,0.00,,,0.00,TxWx,2013-04-16 05:46:00,
2013-04-16 01:47:00,75.3,71.0,30.06,NE,51,5.0,5.6,87,0.00,,,0.00,TxWx,2013-04-16 05:47:00,
2013-04-16 01:49:00,75.5,72.0,30.06,ENE,73,5.0,5.0,87,0.00,,,0.00,TxWx,2013-04-16 05:49:00,
2013-04-16 01:51:00,75.4,71.0,30.05,ENE,73,5.6,5.6,87,0.00,,,0.00,TxWx,2013-04-16 05:51:00,
2013-04-16 01:52:00,75.5,72.0,30.06,NNE,28,5.6,5.6,87,0.00,,,0.00,TxWx,2013-04-16 05:52:00,
2013-04-16 01:53:00,75.6,72.0,30.05,ENE,73,4.3,5.0,87,0.00,,,0.00,TxWx,2013-04-16 05:53:00,
2013-04-16 01:54:00,75.6,72.0,30.06,NE,51,5.6,6.2,87,0.00,,,0.00,TxWx,2013-04-16 05:54:00,
2013-04-16 01:55:00,75.6,72.0,30.05,ENE,73,6.8,6.8,87,0.00,,,0.00,TxWx,2013-04-16 05:55:00,
2013-04-16 01:56:00,75.7,72.0,30.05,NE,51,5.6,6.2,87,0.00,,,0.00,TxWx,2013-04-16 05:56:00,
2013-04-16 02:00:00,75.6,71.0,30.05,ENE,73,5.0,5.6,86,0.00,,,0.00,TxWx,2013-04-16 06:00:00,
2013-04-16 02:01:00,75.7,71.0,30.05,East,96,4.3,4.3,86,0.00,,,0.00,TxWx,2013-04-16 06:01:00,
2013-04-16 02:04:00,75.7,71.0,30.05,ENE,73,3.1,3.1,86,0.00,,,0.00,TxWx,2013-04-16 06:04:00,
2013-04-16 02:05:00,75.7,71.0,30.05,NE,51,2.5,3.1,86,0.00,,,0.00,TxWx,2013-04-16 06:05:00,
2013-04-16 02:06:00,75.7,71.0,30.05,ENE,73,3.7,4.3,86,0.00,,,0.00,TxWx,2013-04-16 06:06:00,
2013-04-16 02:07:00,75.7,71.0,30.05,NE,51,3.1,3.7,86,0.00,,,0.00,TxWx,2013-04-16 06:07:00,
2013-04-16 02:08:00,75.7,71.0,30.05,NE,51,5.0,5.6,86,0.00,,,0.00,TxWx,2013-04-16 06:08:00,
2013-04-16 02:09:00,75.8,71.0,30.05,ENE,73,4.3,5.6,86,0.00,,,0.00,TxWx,2013-04-16 06:09:00,
2013-04-16 02:11:00,75.8,71.0,30.05,East,96,1.9,1.9,86,0.00,,,0.00,TxWx,2013-04-16 06:11:00,
2013-04-16 02:13:00,75.9,71.0,30.05,North,6,1.9,1.9,86,0.00,,,0.00,TxWx,2013-04-16 06:13:00,
2013-04-16 02:14:00,75.8,71.0,30.05,NE,51,3.1,3.1,86,0.00,,,0.00,TxWx,2013-04-16 06:14:00,
2013-04-16 02:16:00,75.7,71.0,30.05,NNE,28,3.1,3.1,86,0.00,,,0.00,TxWx,2013-04-16 06:16:00,
2013-04-16 02:18:00,75.6,71.0,30.05,East,96,4.3,4.3,86,0.00,,,0.00,TxWx,2013-04-16 06:18:00,
2013-04-16 02:20:00,75.7,71.0,30.05,NE,51,3.1,3.1,86,0.00,,,0.00,TxWx,2013-04-16 06:20:00,
2013-04-16 02:24:00,75.7,71.0,30.05,NW,321,1.9,1.9,86,0.00,,,0.00,TxWx,2013-04-16 06:24:00,
2013-04-16 02:25:00,75.6,71.0,30.05,North,6,1.9,2.5,86,0.00,,,0.00,TxWx,2013-04-16 06:25:00,
2013-04-16 02:26:00,75.7,71.0,30.05,East,96,2.5,3.1,86,0.00,,,0.00,TxWx,2013-04-16 06:26:00,
2013-04-16 02:28:00,75.8,71.0,30.05,NE,51,2.5,3.1,86,0.00,,,0.00,TxWx,2013-04-16 06:28:00,
2013-04-16 02:29:00,75.9,71.0,30.05,NE,51,4.3,4.3,86,0.00,,,0.00,TxWx,2013-04-16 06:29:00,
2013-04-16 02:30:00,75.8,71.0,30.05,North,6,3.7,5.0,86,0.00,,,0.00,TxWx,2013-04-16 06:30:00,
2013-04-16 02:32:00,75.9,71.0,30.05,North,6,3.1,3.7,86,0.00,,,0.00,TxWx,2013-04-16 06:32:00,
2013-04-16 02:34:00,76.0,71.0,30.05,NE,51,3.7,3.7,86,0.00,,,0.00,TxWx,2013-04-16 06:34:00,
2013-04-16 02:35:00,76.0,71.0,30.05,NNW,343,3.7,4.3,86,0.00,,,0.00,TxWx,2013-04-16 06:35:00,
2013-04-16 02:36:00,76.0,71.0,30.05,NNE,28,3.7,4.3,86,0.00,,,0.00,TxWx,2013-04-16 06:36:00,
2013-04-16 02:39:00,75.9,71.0,30.05,ENE,73,4.3,5.0,86,0.00,,,0.00,TxWx,2013-04-16 06:39:00,
2013-04-16 02:41:00,75.8,71.0,30.05,NNW,343,2.5,3.1,86,0.00,,,0.00,TxWx,2013-04-16 06:41:00,
2013-04-16 02:46:00,75.8,71.0,30.05,ENE,73,1.9,2.5,85,0.00,,,0.00,TxWx,2013-04-16 06:46:00,
2013-04-16 02:47:00,75.8,71.0,30.05,NE,51,3.1,3.1,85,0.00,,,0.00,TxWx,2013-04-16 06:47:00,
2013-04-16 02:49:00,75.8,71.0,30.05,East,96,2.5,2.5,85,0.00,,,0.00,TxWx,2013-04-16 06:49:00,
2013-04-16 02:51:00,75.8,71.0,30.04,NE,51,2.5,2.5,85,0.00,,,0.00,TxWx,2013-04-16 06:51:00,
2013-04-16 02:53:00,75.8,71.0,30.04,NE,51,2.5,2.5,85,0.00,,,0.00,TxWx,2013-04-16 06:53:00,
2013-04-16 02:54:00,75.8,71.0,30.04,North,6,3.1,3.1,85,0.00,,,0.00,TxWx,2013-04-16 06:54:00,
2013-04-16 02:57:00,75.9,71.0,30.05,NE,51,1.9,3.1,85,0.00,,,0.00,TxWx,2013-04-16 06:57:00,
2013-04-16 02:58:00,75.9,71.0,30.05,NNW,343,1.2,1.2,85,0.00,,,0.00,TxWx,2013-04-16 06:58:00,
2013-04-16 03:00:00,75.9,71.0,30.04,NNE,28,3.1,3.7,85,0.00,,,0.00,TxWx,2013-04-16 07:00:00,
2013-04-16 03:01:00,76.0,71.0,30.04,ENE,73,3.1,3.1,85,0.00,,,0.00,TxWx,2013-04-16 07:01:00,
2013-04-16 03:03:00,76.0,71.0,30.04,East,96,2.5,3.1,85,0.00,,,0.00,TxWx,2013-04-16 07:03:00,
2013-04-16 03:04:00,76.0,71.0,30.04,ENE,73,1.9,2.5,85,0.00,,,0.00,TxWx,2013-04-16 07:04:00,
2013-04-16 03:06:00,76.1,71.0,30.04,North,6,4.3,4.3,85,0.00,,,0.00,TxWx,2013-04-16 07:06:00,
2013-04-16 03:08:00,76.3,71.0,30.04,NNW,343,1.9,1.9,85,0.00,,,0.00,TxWx,2013-04-16 07:08:00,
2013-04-16 03:11:00,76.1,71.0,30.04,NNW,343,1.9,2.5,85,0.00,,,0.00,TxWx,2013-04-16 07:11:00,
2013-04-16 03:14:00,76.1,71.0,30.04,NNE,28,2.5,3.1,85,0.00,,,0.00,TxWx,2013-04-16 07:14:00,
2013-04-16 03:17:00,76.1,71.0,30.04,NE,51,2.5,3.1,85,0.00,,,0.00,TxWx,2013-04-16 07:17:00,
2013-04-16 03:19:00,76.2,71.0,30.04,South,186,1.9,1.9,85,0.00,,,0.00,TxWx,2013-04-16 07:19:00,
2013-04-16 03:20:00,76.1,71.0,30.04,NE,51,2.5,2.5,85,0.00,,,0.00,TxWx,2013-04-16 07:20:00,
2013-04-16 03:22:00,76.2,71.0,30.04,North,6,2.5,2.5,85,0.00,,,0.00,TxWx,2013-04-16 07:22:00,
2013-04-16 03:23:00,76.3,71.0,30.04,NE,51,1.9,1.9,85,0.00,,,0.00,TxWx,2013-04-16 07:23:00,
2013-04-16 03:25:00,76.3,71.0,30.04,SW,231,0.6,1.9,85,0.00,,,0.00,TxWx,2013-04-16 07:25:00,
2013-04-16 03:26:00,76.2,71.0,30.04,WSW,253,1.2,1.2,85,0.00,,,0.00,TxWx,2013-04-16 07:26:00,
2013-04-16 03:27:00,76.3,71.0,30.04,WNW,298,1.9,1.9,85,0.00,,,0.00,TxWx,2013-04-16 07:27:00,
2013-04-16 03:29:00,76.3,71.0,30.04,SW,231,0.6,0.6,85,0.00,,,0.00,TxWx,2013-04-16 07:29:00,
2013-04-16 03:30:00,76.3,71.0,30.04,North,6,1.2,1.2,85,0.00,,,0.00,TxWx,2013-04-16 07:30:00,
2013-04-16 03:31:00,76.3,71.0,30.04,NE,51,1.9,1.9,85,0.00,,,0.00,TxWx,2013-04-16 07:31:00,
2013-04-16 03:32:00,76.1,71.0,30.04,NE,51,2.5,2.5,85,0.00,,,0.00,TxWx,2013-04-16 07:32:00,
2013-04-16 03:34:00,76.0,71.0,30.04,North,6,3.1,3.1,85,0.00,,,0.00,TxWx,2013-04-16 07:34:00,
2013-04-16 03:36:00,76.1,71.0,30.04,NE,51,3.1,3.7,85,0.00,,,0.00,TxWx,2013-04-16 07:36:00,
2013-04-16 03:38:00,76.0,71.0,30.04,ENE,73,3.1,3.1,85,0.00,,,0.00,TxWx,2013-04-16 07:38:00,
2013-04-16 03:39:00,76.1,71.0,30.04,WNW,298,1.9,1.9,85,0.00,,,0.00,TxWx,2013-04-16 07:39:00,
2013-04-16 03:40:00,76.1,71.0,30.04,SSW,208,1.9,2.5,85,0.00,,,0.00,TxWx,2013-04-16 07:40:00,
2013-04-16 03:41:00,76.2,71.0,30.04,NNW,343,3.1,3.7,85,0.00,,,0.00,TxWx,2013-04-16 07:41:00,
2013-04-16 03:43:00,76.1,71.0,30.04,East,96,3.1,3.7,85,0.00,,,0.00,TxWx,2013-04-16 07:43:00,
2013-04-16 03:44:00,76.1,71.0,30.04,East,96,1.9,1.9,85,0.00,,,0.00,TxWx,2013-04-16 07:44:00,
2013-04-16 03:45:00,76.0,71.0,30.04,SE,141,2.5,2.5,85,0.00,,,0.00,TxWx,2013-04-16 07:45:00,
2013-04-16 03:47:00,76.0,71.0,30.04,SE,141,1.2,1.2,85,0.00,,,0.00,TxWx,2013-04-16 07:47:00,
2013-04-16 03:49:00,76.0,71.0,30.04,NNE,28,2.5,2.5,85,0.00,,,0.00,TxWx,2013-04-16 07:49:00,
2013-04-16 03:50:00,76.0,71.0,30.04,NNW,343,1.9,1.9,85,0.00,,,0.00,TxWx,2013-04-16 07:50:00,
2013-04-16 03:51:00,76.0,71.0,30.04,North,6,1.9,2.5,85,0.00,,,0.00,TxWx,2013-04-16 07:51:00,
2013-04-16 03:54:00,76.0,71.0,30.04,North,6,3.7,3.7,85,0.00,,,0.00,TxWx,2013-04-16 07:54:00,
2013-04-16 03:55:00,76.1,71.0,30.04,WSW,253,0.6,0.6,85,0.00,,,0.00,TxWx,2013-04-16 07:55:00,
2013-04-16 03:56:00,76.0,71.0,30.04,WNW,298,2.5,2.5,85,0.00,,,0.00,TxWx,2013-04-16 07:56:00,
2013-04-16 03:57:00,76.0,71.0,30.04,NNW,343,2.5,2.5,85,0.00,,,0.00,TxWx,2013-04-16 07:57:00,
2013-04-16 03:58:00,76.1,71.0,30.04,ENE,73,1.9,1.9,85,0.00,,,0.00,TxWx,2013-04-16 07:58:00,
2013-04-16 04:01:00,76.1,71.0,30.04,NE,51,2.5,2.5,84,0.00,,,0.00,TxWx,2013-04-16 08:01:00,
2013-04-16 04:02:00,76.1,71.0,30.04,NNE,28,2.5,3.7,85,0.00,,,0.00,TxWx,2013-04-16 08:02:00,
2013-04-16 04:03:00,76.1,71.0,30.04,NE,51,3.7,3.7,85,0.00,,,0.00,TxWx,2013-04-16 08:03:00,
2013-04-16 04:04:00,76.1,71.0,30.04,NNE,28,2.5,2.5,85,0.00,,,0.00,TxWx,2013-04-16 08:04:00,
2013-04-16 04:07:00,76.1,71.0,30.04,North,6,2.5,2.5,84,0.00,,,0.00,TxWx,2013-04-16 08:07:00,
2013-04-16 04:10:00,76.1,71.0,30.04,NNE,28,2.5,3.1,84,0.00,,,0.00,TxWx,2013-04-16 08:10:00,
2013-04-16 04:11:00,76.1,71.0,30.04,NE,51,1.2,1.9,84,0.00,,,0.00,TxWx,2013-04-16 08:11:00,
2013-04-16 04:15:00,76.1,71.0,30.04,NNE,28,3.1,3.1,84,0.00,,,0.00,TxWx,2013-04-16 08:15:00,
2013-04-16 04:16:00,76.1,71.0,30.04,North,6,3.1,3.1,84,0.00,,,0.00,TxWx,2013-04-16 08:16:00,
2013-04-16 04:17:00,76.1,71.0,30.04,North,6,3.1,3.1,84,0.00,,,0.00,TxWx,2013-04-16 08:17:00,
2013-04-16 04:18:00,76.1,71.0,30.04,North,6,3.7,3.7,84,0.00,,,0.00,TxWx,2013-04-16 08:18:00,
2013-04-16 04:21:00,76.3,71.0,30.04,NE,51,2.5,2.5,84,0.00,,,0.00,TxWx,2013-04-16 08:21:00,
2013-04-16 04:22:00,76.2,71.0,30.04,East,96,3.7,3.7,84,0.00,,,0.00,TxWx,2013-04-16 08:22:00,
2013-04-16 04:23:00,76.2,71.0,30.04,NNE,28,1.9,2.5,84,0.00,,,0.00,TxWx,2013-04-16 08:23:00,
2013-04-16 04:24:00,76.2,71.0,30.04,SW,231,1.9,2.5,84,0.00,,,0.00,TxWx,2013-04-16 08:24:00,
2013-04-16 04:26:00,76.1,71.0,30.04,NNE,28,4.3,4.3,84,0.00,,,0.00,TxWx,2013-04-16 08:26:00,
2013-04-16 04:28:00,76.1,71.0,30.04,North,6,3.1,3.1,84,0.00,,,0.00,TxWx,2013-04-16 08:28:00,
2013-04-16 04:30:00,76.3,71.0,30.04,NW,321,1.9,1.9,84,0.00,,,0.00,TxWx,2013-04-16 08:30:00,
2013-04-16 04:32:00,76.2,71.0,30.04,NE,51,4.3,4.3,84,0.00,,,0.00,TxWx,2013-04-16 08:32:00,
2013-04-16 04:33:00,76.2,71.0,30.04,NE,51,3.1,3.1,84,0.00,,,0.00,TxWx,2013-04-16 08:33:00,
2013-04-16 04:34:00,76.2,71.0,30.04,North,6,3.1,3.7,84,0.00,,,0.00,TxWx,2013-04-16 08:34:00,
2013-04-16 04:36:00,76.2,71.0,30.04,NE,51,3.1,3.1,84,0.00,,,0.00,TxWx,2013-04-16 08:36:00,
2013-04-16 04:39:00,76.3,71.0,30.04,ENE,73,4.3,4.3,84,0.00,,,0.00,TxWx,2013-04-16 08:39:00,
2013-04-16 04:40:00,76.3,71.0,30.04,ENE,73,2.5,2.5,84,0.00,,,0.00,TxWx,2013-04-16 08:40:00,
2013-04-16 04:41:00,76.3,71.0,30.04,North,6,1.2,1.9,84,0.00,,,0.00,TxWx,2013-04-16 08:41:00,
2013-04-16 04:42:00,76.3,71.0,30.04,ENE,73,1.9,1.9,84,0.00,,,0.00,TxWx,2013-04-16 08:42:00,
2013-04-16 04:43:00,76.3,71.0,30.04,NNE,28,1.9,1.9,84,0.00,,,0.00,TxWx,2013-04-16 08:43:00,
2013-04-16 04:45:00,76.4,71.0,30.04,NW,321,1.9,2.5,84,0.00,,,0.00,TxWx,2013-04-16 08:45:00,
2013-04-16 04:47:00,76.2,71.0,30.04,ENE,73,3.1,3.1,84,0.00,,,0.00,TxWx,2013-04-16 08:47:00,
2013-04-16 04:49:00,76.3,71.0,30.04,NNW,343,4.3,4.3,84,0.00,,,0.00,TxWx,2013-04-16 08:49:00,
2013-04-16 04:51:00,76.3,71.0,30.04,NNE,28,1.9,1.9,84,0.00,,,0.00,TxWx,2013-04-16 08:51:00,
2013-04-16 04:52:00,76.3,71.0,30.04,North,6,3.7,3.7,84,0.00,,,0.00,TxWx,2013-04-16 08:52:00,
2013-04-16 04:55:00,76.3,71.0,30.04,NNW,343,1.9,2.5,84,0.00,,,0.00,TxWx,2013-04-16 08:55:00,
2013-04-16 04:57:00,76.3,71.0,30.04,NNW,343,2.5,2.5,84,0.00,,,0.00,TxWx,2013-04-16 08:57:00,
2013-04-16 04:59:00,76.2,71.0,30.04,ENE,73,2.5,2.5,84,0.00,,,0.00,TxWx,2013-04-16 08:59:00,
2013-04-16 05:01:00,76.3,71.0,30.04,NNE,28,2.5,3.1,85,0.00,,,0.00,TxWx,2013-04-16 09:01:00,
2013-04-16 05:03:00,76.3,71.0,30.04,NNE,28,1.2,1.9,85,0.00,,,0.00,TxWx,2013-04-16 09:03:00,
2013-04-16 05:05:00,76.3,71.0,30.04,NW,321,2.5,3.1,85,0.00,,,0.00,TxWx,2013-04-16 09:05:00,
2013-04-16 05:07:00,76.3,71.0,30.04,WSW,253,1.9,1.9,85,0.00,,,0.00,TxWx,2013-04-16 09:07:00,
2013-04-16 05:09:00,76.3,71.0,30.04,NNE,28,1.2,1.9,85,0.00,,,0.00,TxWx,2013-04-16 09:09:00,
2013-04-16 05:12:00,76.1,71.0,30.04,WSW,253,0.6,0.6,85,0.00,,,0.00,TxWx,2013-04-16 09:12:00,
2013-04-16 05:13:00,76.1,71.0,30.04,WSW,253,0.6,0.6,85,0.00,,,0.00,TxWx,2013-04-16 09:13:00,
2013-04-16 05:15:00,76.1,71.0,30.04,WNW,298,1.2,1.2,85,0.00,,,0.00,TxWx,2013-04-16 09:15:00,
2013-04-16 05:18:00,75.9,71.0,30.04,NW,321,1.9,1.9,85,0.00,,,0.00,TxWx,2013-04-16 09:18:00,
2013-04-16 05:19:00,75.9,71.0,30.05,WNW,298,1.2,1.2,85,0.00,,,0.00,TxWx,2013-04-16 09:19:00,
2013-04-16 05:20:00,75.8,71.0,30.05,West,276,1.2,1.2,85,0.00,,,0.00,TxWx,2013-04-16 09:20:00,
2013-04-16 05:21:00,75.8,71.0,30.04,West,276,0.6,1.2,85,0.00,,,0.00,TxWx,2013-04-16 09:21:00,
2013-04-16 05:25:00,75.6,71.0,30.04,West,276,1.2,1.9,86,0.00,,,0.00,TxWx,2013-04-16 09:25:00,
2013-04-16 05:26:00,75.6,71.0,30.04,WNW,298,0.6,1.2,86,0.00,,,0.00,TxWx,2013-04-16 09:26:00,
2013-04-16 05:27:00,75.6,71.0,30.05,WNW,298,1.9,1.9,86,0.00,,,0.00,TxWx,2013-04-16 09:27:00,
2013-04-16 05:28:00,75.5,70.0,30.04,WNW,298,1.2,1.2,86,0.00,,,0.00,TxWx,2013-04-16 09:28:00,
2013-04-16 05:31:00,75.4,71.0,30.04,West,276,1.2,1.2,86,0.00,,,0.00,TxWx,2013-04-16 09:31:00,
2013-04-16 05:32:00,75.4,71.0,30.05,WNW,298,1.9,1.9,86,0.00,,,0.00,TxWx,2013-04-16 09:32:00,
2013-04-16 05:33:00,75.3,71.0,30.05,WNW,298,1.9,1.9,87,0.00,,,0.00,TxWx,2013-04-16 09:33:00,
2013-04-16 05:34:00,75.3,71.0,30.05,NNW,343,1.9,1.9,87,0.00,,,0.00,TxWx,2013-04-16 09:34:00,
2013-04-16 05:36:00,75.3,71.0,30.05,NNW,343,2.5,2.5,87,0.00,,,0.00,TxWx,2013-04-16 09:36:00,
2013-04-16 05:37:00,75.3,71.0,30.05,NNW,343,2.5,2.5,87,0.00,,,0.00,TxWx,2013-04-16 09:37:00,
2013-04-16 05:38:00,75.3,71.0,30.05,NW,321,1.2,1.2,87,0.00,,,0.00,TxWx,2013-04-16 09:38:00,
2013-04-16 05:39:00,75.4,71.0,30.05,NW,321,1.9,1.9,87,0.00,,,0.00,TxWx,2013-04-16 09:39:00,
2013-04-16 05:41:00,75.3,71.0,30.05,NW,321,1.9,2.5,87,0.00,,,0.00,TxWx,2013-04-16 09:41:00,
2013-04-16 05:42:00,75.3,71.0,30.05,WNW,298,1.9,1.9,87,0.00,,,0.00,TxWx,2013-04-16 09:42:00,
2013-04-16 05:43:00,75.3,71.0,30.05,NNW,343,1.9,1.9,88,0.00,,,0.00,TxWx,2013-04-16 09:43:00,
2013-04-16 05:44:00,75.3,71.0,30.05,WNW,298,1.9,1.9,88,0.00,,,0.00,TxWx,2013-04-16 09:44:00,
2013-04-16 05:47:00,75.3,71.0,30.05,WNW,298,0.6,0.6,88,0.00,,,0.00,TxWx,2013-04-16 09:47:00,
2013-04-16 05:48:00,75.3,71.0,30.05,NNW,343,1.2,1.2,88,0.00,,,0.00,TxWx,2013-04-16 09:48:00,
2013-04-16 05:49:00,75.3,71.0,30.05,West,276,1.2,1.2,88,0.00,,,0.00,TxWx,2013-04-16 09:49:00,
2013-04-16 05:51:00,75.4,71.0,30.05,West,276,1.2,1.9,88,0.00,,,0.00,TxWx,2013-04-16 09:51:00,
2013-04-16 05:53:00,75.4,71.0,30.06,WNW,298,1.9,2.5,88,0.00,,,0.00,TxWx,2013-04-16 09:53:00,
2013-04-16 05:54:00,75.4,71.0,30.05,WNW,298,1.2,1.9,88,0.00,,,0.00,TxWx,2013-04-16 09:54:00,
2013-04-16 05:55:00,75.4,71.0,30.06,NW,321,2.5,2.5,88,0.00,,,0.00,TxWx,2013-04-16 09:55:00,
2013-04-16 05:56:00,75.4,71.0,30.05,WNW,298,1.2,1.2,88,0.00,,,0.00,TxWx,2013-04-16 09:56:00,
2013-04-16 05:58:00,75.5,72.0,30.05,NW,321,1.9,1.9,88,0.00,,,0.00,TxWx,2013-04-16 09:58:00,
2013-04-16 05:59:00,75.5,71.0,30.06,NW,321,1.9,1.9,88,0.00,,,0.00,TxWx,2013-04-16 09:59:00,
2013-04-16 06:02:00,75.5,72.0,30.06,West,276,1.9,2.5,88,0.00,,,0.00,TxWx,2013-04-16 10:02:00,
2013-04-16 06:04:00,75.6,72.0,30.06,NW,321,1.2,1.2,89,0.00,,,0.00,TxWx,2013-04-16 10:04:00,
2013-04-16 06:06:00,75.6,72.0,30.06,NW,321,2.5,2.5,89,0.00,,,0.00,TxWx,2013-04-16 10:06:00,
2013-04-16 06:07:00,75.7,72.0,30.06,NW,321,1.9,1.9,89,0.00,,,0.00,TxWx,2013-04-16 10:07:00,
2013-04-16 06:09:00,75.7,72.0,30.06,West,276,1.2,1.2,89,0.00,,,0.00,TxWx,2013-04-16 10:09:00,
2013-04-16 06:10:00,75.6,72.0,30.06,NW,321,2.5,2.5,89,0.00,,,0.00,TxWx,2013-04-16 10:10:00,
2013-04-16 06:11:00,75.6,72.0,30.06,WNW,298,1.2,1.9,89,0.00,,,0.00,TxWx,2013-04-16 10:11:00,
2013-04-16 06:12:00,75.6,72.0,30.06,West,276,1.2,1.2,89,0.00,,,0.00,TxWx,2013-04-16 10:12:00,
2013-04-16 06:14:00,75.6,72.0,30.06,West,276,1.2,1.2,89,0.00,,,0.00,TxWx,2013-04-16 10:14:00,
2013-04-16 06:16:00,75.5,72.0,30.06,WNW,298,1.9,1.9,89,0.00,,,0.00,TxWx,2013-04-16 10:16:00,
2013-04-16 06:19:00,75.4,71.0,30.06,WNW,298,1.2,1.2,89,0.00,,,0.00,TxWx,2013-04-16 10:19:00,
2013-04-16 06:20:00,75.4,71.0,30.06,West,276,0.6,1.2,89,0.00,,,0.00,TxWx,2013-04-16 10:20:00,
2013-04-16 06:21:00,75.4,71.0,30.06,West,276,0.6,0.6,89,0.00,,,0.00,TxWx,2013-04-16 10:21:00,
2013-04-16 06:24:00,75.3,71.0,30.06,WNW,298,1.2,1.2,89,0.00,,,0.00,TxWx,2013-04-16 10:24:00,
2013-04-16 06:25:00,75.2,71.0,30.06,WSW,253,1.2,1.9,89,0.00,,,0.00,TxWx,2013-04-16 10:25:00,
2013-04-16 06:26:00,75.2,71.0,30.05,WNW,298,1.9,1.9,89,0.00,,,0.00,TxWx,2013-04-16 10:26:00,
2013-04-16 06:31:00,75.1,71.0,30.06,NNW,343,1.2,1.9,89,0.00,,,0.00,TxWx,2013-04-16 10:31:00,
2013-04-16 06:32:00,75.2,71.0,30.06,NNW,343,1.2,1.9,89,0.00,,,0.00,TxWx,2013-04-16 10:32:00,
2013-04-16 06:33:00,75.2,72.0,30.06,West,276,1.2,1.2,89,0.00,,,0.00,TxWx,2013-04-16 10:33:00,
2013-04-16 06:35:00,75.3,72.0,30.06,North,6,3.7,4.3,89,0.00,,,0.00,TxWx,2013-04-16 10:35:00,
2013-04-16 06:37:00,75.3,72.0,30.06,North,6,2.5,2.5,89,0.00,,,0.00,TxWx,2013-04-16 10:37:00,
2013-04-16 06:38:00,75.4,72.0,30.06,NW,321,1.9,1.9,89,0.00,,,0.00,TxWx,2013-04-16 10:38:00,
2013-04-16 06:39:00,75.4,72.0,30.06,NW,321,1.9,2.5,89,0.00,,,0.00,TxWx,2013-04-16 10:39:00,
2013-04-16 06:43:00,75.5,73.0,30.06,NNW,343,1.9,2.5,89,0.00,,,0.00,TxWx,2013-04-16 10:43:00,
2013-04-16 06:44:00,75.5,73.0,30.06,NNW,343,3.1,3.1,89,0.00,,,0.00,TxWx,2013-04-16 10:44:00,
2013-04-16 06:45:00,75.6,73.0,30.06,West,276,1.2,1.2,89,0.00,,,0.00,TxWx,2013-04-16 10:45:00,
2013-04-16 06:46:00,75.6,73.0,30.06,SW,231,0.6,1.2,89,0.00,,,0.00,TxWx,2013-04-16 10:46:00,
2013-04-16 06:48:00,75.7,73.0,30.06,West,276,1.2,1.2,89,0.00,,,0.00,TxWx,2013-04-16 10:48:00,
2013-04-16 06:49:00,75.7,73.0,30.06,WSW,253,0.6,1.2,89,0.00,,,0.00,TxWx,2013-04-16 10:49:00,
2013-04-16 06:50:00,75.7,73.0,30.06,WSW,253,0.6,0.6,89,0.00,,,0.00,TxWx,2013-04-16 10:50:00,
2013-04-16 06:51:00,75.7,73.0,30.06,NNW,343,1.2,1.2,89,0.00,,,0.00,TxWx,2013-04-16 10:51:00,
2013-04-16 06:52:00,75.7,73.0,30.06,NNE,28,2.5,2.5,89,0.00,,,0.00,TxWx,2013-04-16 10:52:00,
2013-04-16 06:54:00,75.7,73.0,30.07,WSW,253,0.6,0.6,89,0.00,,,0.00,TxWx,2013-04-16 10:54:00,
2013-04-16 06:55:00,75.7,73.0,30.07,NNW,343,1.9,1.9,89,0.00,,,0.00,TxWx,2013-04-16 10:55:00,
2013-04-16 06:57:00,75.7,73.0,30.07,NW,321,1.9,1.9,89,0.00,,,0.00,TxWx,2013-04-16 10:57:00,
2013-04-16 06:58:00,75.7,73.0,30.07,NW,321,2.5,2.5,89,0.00,,,0.00,TxWx,2013-04-16 10:58:00,
2013-04-16 06:59:00,75.7,73.0,30.07,ENE,73,1.2,1.2,89,0.00,,,0.00,TxWx,2013-04-16 10:59:00,
2013-04-16 07:00:00,75.6,73.0,30.07,NW,321,1.9,1.9,89,0.00,,,0.00,TxWx,2013-04-16 11:00:00,
2013-04-16 07:02:00,75.6,73.0,30.07,NNW,343,3.1,3.1,89,0.00,,,0.00,TxWx,2013-04-16 11:02:00,
2013-04-16 07:03:00,75.6,73.0,30.07,NNE,28,3.1,3.1,89,0.00,,,0.00,TxWx,2013-04-16 11:03:00,
2013-04-16 07:04:00,75.5,73.0,30.07,NE,51,3.1,3.1,89,0.00,,,0.00,TxWx,2013-04-16 11:04:00,
2013-04-16 07:05:00,75.6,73.0,30.07,NNE,28,3.1,3.1,89,0.00,,,0.00,TxWx,2013-04-16 11:05:00,
2013-04-16 07:08:00,75.6,73.0,30.07,SE,141,1.9,1.9,89,0.00,,,0.00,TxWx,2013-04-16 11:08:00,
2013-04-16 07:09:00,75.5,73.0,30.07,NW,321,1.9,2.5,89,0.00,,,0.00,TxWx,2013-04-16 11:09:00,
2013-04-16 07:10:00,75.6,73.0,30.07,NE,51,3.7,5.0,89,0.00,,,0.00,TxWx,2013-04-16 11:10:00,
2013-04-16 07:11:00,75.6,73.0,30.07,North,6,1.9,1.9,89,0.00,,,0.00,TxWx,2013-04-16 11:11:00,
2013-04-16 07:13:00,75.5,73.0,30.07,NNE,28,1.9,1.9,89,0.00,,,0.00,TxWx,2013-04-16 11:13:00,
2013-04-16 07:14:00,75.6,73.0,30.07,WNW,298,1.9,1.9,89,0.00,,,0.00,TxWx,2013-04-16 11:14:00,
2013-04-16 07:15:00,75.6,73.0,30.07,ENE,73,1.9,1.9,89,0.00,,,0.00,TxWx,2013-04-16 11:15:00,
2013-04-16 07:17:00,75.5,72.0,30.08,NNE,28,3.7,3.7,89,0.00,,,0.00,TxWx,2013-04-16 11:17:00,
2013-04-16 07:18:00,75.4,72.0,30.08,NNE,28,2.5,2.5,89,0.00,,,0.00,TxWx,2013-04-16 11:18:00,
2013-04-16 07:20:00,75.4,72.0,30.08,ENE,73,3.1,3.1,89,0.00,,,0.00,TxWx,2013-04-16 11:20:00,
2013-04-16 07:21:00,75.5,72.0,30.08,East,96,2.5,3.1,89,0.00,,,0.00,TxWx,2013-04-16 11:21:00,
2013-04-16 07:23:00,75.6,73.0,30.08,NNW,343,2.5,3.1,89,0.00,,,0.00,TxWx,2013-04-16 11:23:00,
2013-04-16 07:25:00,75.8,73.0,30.08,NE,51,3.1,3.1,89,0.00,,,0.00,TxWx,2013-04-16 11:25:00,
2013-04-16 07:26:00,75.9,73.0,30.08,East,96,3.7,4.3,89,0.00,,,0.00,TxWx,2013-04-16 11:26:00,
2013-04-16 07:27:00,75.9,73.0,30.08,North,6,2.5,2.5,89,0.00,,,0.00,TxWx,2013-04-16 11:27:00,
2013-04-16 07:28:00,75.8,73.0,30.08,NNE,28,3.1,3.7,89,0.00,,,0.00,TxWx,2013-04-16 11:28:00,
2013-04-16 07:31:00,76.5,74.0,30.08,East,96,5.6,6.8,90,0.00,,,0.00,TxWx,2013-04-16 11:31:00,
2013-04-16 07:32:00,76.7,74.0,30.08,East,96,5.6,5.6,90,0.00,,,0.00,TxWx,2013-04-16 11:32:00,
2013-04-16 07:33:00,76.8,74.0,30.08,ESE,118,6.8,8.7,90,0.00,,,0.00,TxWx,2013-04-16 11:33:00,
2013-04-16 07:35:00,77.0,74.0,30.08,ENE,73,6.2,6.2,90,0.00,,,0.00,TxWx,2013-04-16 11:35:00,
2013-04-16 07:36:00,77.0,73.0,30.08,East,96,5.6,6.2,89,0.00,,,0.00,TxWx,2013-04-16 11:36:00,
2013-04-16 07:38:00,77.2,73.0,30.08,East,96,6.8,6.8,89,0.00,,,0.00,TxWx,2013-04-16 11:38:00,
2013-04-16 07:40:00,77.5,73.0,30.08,East,96,8.0,8.0,89,0.00,,,0.00,TxWx,2013-04-16 11:40:00,
2013-04-16 07:41:00,77.5,73.0,30.08,ESE,118,7.4,7.4,89,0.00,,,0.00,TxWx,2013-04-16 11:41:00,
2013-04-16 07:43:00,77.5,74.0,30.08,East,96,7.4,8.0,88,0.00,,,0.00,TxWx,2013-04-16 11:43:00,
2013-04-16 07:44:00,77.6,74.0,30.08,East,96,5.0,5.6,88,0.00,,,0.00,TxWx,2013-04-16 11:44:00,
2013-04-16 07:45:00,77.7,74.0,30.08,East,96,6.2,6.8,88,0.00,,,0.00,TxWx,2013-04-16 11:45:00,
2013-04-16 07:46:00,77.7,74.0,30.08,East,96,7.4,7.4,88,0.00,,,0.00,TxWx,2013-04-16 11:46:00,
2013-04-16 07:48:00,77.9,74.0,30.08,ESE,118,5.0,5.6,88,0.00,,,0.00,TxWx,2013-04-16 11:48:00,
2013-04-16 07:51:00,77.9,74.0,30.08,East,96,6.2,6.2,87,0.00,,,0.00,TxWx,2013-04-16 11:51:00,
2013-04-16 07:52:00,77.9,74.0,30.09,ENE,73,7.4,7.4,87,0.00,,,0.00,TxWx,2013-04-16 11:52:00,
2013-04-16 07:54:00,77.8,74.0,30.09,East,96,6.8,7.4,87,0.00,,,0.00,TxWx,2013-04-16 11:54:00,
2013-04-16 07:55:00,77.8,74.0,30.09,East,96,7.4,8.7,87,0.00,,,0.00,TxWx,2013-04-16 11:55:00,
2013-04-16 07:57:00,77.8,74.0,30.08,East,96,8.0,9.3,87,0.00,,,0.00,TxWx,2013-04-16 11:57:00,
2013-04-16 07:59:00,77.8,74.0,30.09,East,96,8.7,8.7,87,0.00,,,0.00,TxWx,2013-04-16 11:59:00,
2013-04-16 08:00:00,77.8,74.0,30.09,ENE,73,8.0,8.0,87,0.00,,,0.00,TxWx,2013-04-16 12:00:00,
2013-04-16 08:01:00,77.8,74.0,30.09,East,96,8.7,9.3,87,0.00,,,0.00,TxWx,2013-04-16 12:01:00,
2013-04-16 08:02:00,77.7,74.0,30.09,East,96,7.4,9.3,87,0.00,,,0.00,TxWx,2013-04-16 12:02:00,
2013-04-16 08:03:00,77.8,74.0,30.09,East,96,8.0,8.7,87,0.00,,,0.00,TxWx,2013-04-16 12:03:00,
2013-04-16 08:05:00,77.9,74.0,30.09,East,96,5.6,6.8,87,0.00,,,0.00,TxWx,2013-04-16 12:05:00,
2013-04-16 08:06:00,77.9,74.0,30.09,ESE,118,5.6,6.8,87,0.00,,,0.00,TxWx,2013-04-16 12:06:00,
2013-04-16 08:08:00,78.0,74.0,30.09,East,96,6.8,6.8,87,0.00,,,0.00,TxWx,2013-04-16 12:08:00,
2013-04-16 08:09:00,77.9,74.0,30.09,East,96,8.7,8.7,87,0.00,,,0.00,TxWx,2013-04-16 12:09:00,
2013-04-16 08:11:00,77.9,74.0,30.09,East,96,8.7,8.7,87,0.00,,,0.00,TxWx,2013-04-16 12:11:00,
2013-04-16 08:14:00,77.9,74.0,30.09,East,96,6.8,7.4,87,0.00,,,0.00,TxWx,2013-04-16 12:14:00,
2013-04-16 08:15:00,78.0,74.0,30.09,East,96,8.0,8.0,87,0.00,,,0.00,TxWx,2013-04-16 12:15:00,
2013-04-16 08:16:00,78.0,74.0,30.09,East,96,6.2,7.4,87,0.00,,,0.00,TxWx,2013-04-16 12:16:00,
2013-04-16 08:20:00,78.2,74.0,30.09,East,96,8.7,8.7,87,0.00,,,0.00,TxWx,2013-04-16 12:20:00,
2013-04-16 08:21:00,78.1,74.0,30.09,East,96,8.7,8.7,87,0.00,,,0.00,TxWx,2013-04-16 12:21:00,
2013-04-16 08:25:00,78.2,74.0,30.09,East,96,9.3,9.9,87,0.00,,,0.00,TxWx,2013-04-16 12:25:00,
2013-04-16 08:26:00,78.2,74.0,30.09,East,96,8.7,9.3,87,0.00,,,0.00,TxWx,2013-04-16 12:26:00,
2013-04-16 08:27:00,78.2,74.0,30.09,East,96,8.0,8.7,87,0.00,,,0.00,TxWx,2013-04-16 12:27:00,
2013-04-16 08:30:00,78.3,74.0,30.09,ESE,118,6.8,9.3,87,0.00,,,0.00,TxWx,2013-04-16 12:30:00,
2013-04-16 08:31:00,78.4,74.0,30.09,East,96,8.0,8.0,87,0.00,,,0.00,TxWx,2013-04-16 12:31:00,
2013-04-16 08:32:00,78.3,74.0,30.10,ENE,73,9.3,9.3,87,0.00,,,0.00,TxWx,2013-04-16 12:32:00,
2013-04-16 08:33:00,78.2,73.0,30.10,East,96,6.8,8.0,86,0.00,,,0.00,TxWx,2013-04-16 12:33:00,
2013-04-16 08:34:00,78.4,73.0,30.10,East,96,9.3,9.3,86,0.00,,,0.00,TxWx,2013-04-16 12:34:00,
2013-04-16 08:37:00,78.4,73.0,30.10,ESE,118,9.3,9.3,86,0.00,,,0.00,TxWx,2013-04-16 12:37:00,
2013-04-16 08:38:00,78.4,73.0,30.10,East,96,7.4,8.0,86,0.00,,,0.00,TxWx,2013-04-16 12:38:00,
2013-04-16 08:39:00,78.3,73.0,30.10,East,96,8.0,9.3,85,0.00,,,0.00,TxWx,2013-04-16 12:39:00,
2013-04-16 08:41:00,78.6,74.0,30.10,East,96,8.0,8.0,85,0.00,,,0.00,TxWx,2013-04-16 12:41:00,
2013-04-16 08:42:00,78.5,74.0,30.10,East,96,9.3,9.3,85,0.00,,,0.00,TxWx,2013-04-16 12:42:00,
2013-04-16 08:43:00,78.6,74.0,30.10,East,96,8.0,8.0,84,0.00,,,0.00,TxWx,2013-04-16 12:43:00,
2013-04-16 08:44:00,78.6,74.0,30.10,East,96,9.3,9.9,84,0.00,,,0.00,TxWx,2013-04-16 12:44:00,
2013-04-16 08:45:00,78.6,74.0,30.10,East,96,8.7,9.3,84,0.00,,,0.00,TxWx,2013-04-16 12:45:00,
2013-04-16 08:47:00,78.8,74.0,30.10,East,96,7.4,8.0,84,0.00,,,0.00,TxWx,2013-04-16 12:47:00,
2013-04-16 08:48:00,78.8,74.0,30.10,ESE,118,6.8,7.4,84,0.00,,,0.00,TxWx,2013-04-16 12:48:00,
2013-04-16 08:50:00,78.8,74.0,30.10,ESE,118,9.9,9.9,84,0.00,,,0.00,TxWx,2013-04-16 12:50:00,
2013-04-16 08:52:00,78.6,73.0,30.10,East,96,9.3,9.9,83,0.00,,,0.00,TxWx,2013-04-16 12:52:00,
2013-04-16 08:53:00,78.6,73.0,30.10,ESE,118,10.5,11.1,83,0.00,,,0.00,TxWx,2013-04-16 12:53:00,
2013-04-16 08:54:00,78.8,73.0,30.10,East,96,8.7,8.7,83,0.00,,,0.00,TxWx,2013-04-16 12:54:00,
2013-04-16 08:58:00,78.9,73.0,30.10,East,96,7.4,8.0,83,0.00,,,0.00,TxWx,2013-04-16 12:58:00,
2013-04-16 08:59:00,79.0,73.0,30.11,ENE,73,7.4,7.4,83,0.00,,,0.00,TxWx,2013-04-16 12:59:00,
2013-04-16 09:01:00,78.8,73.0,30.10,ESE,118,9.9,9.9,83,0.00,,,0.00,TxWx,2013-04-16 13:01:00,
2013-04-16 09:02:00,78.9,73.0,30.10,ESE,118,9.3,10.5,83,0.00,,,0.00,TxWx,2013-04-16 13:02:00,
2013-04-16 09:03:00,78.9,73.0,30.10,ENE,73,9.3,9.3,83,0.00,,,0.00,TxWx,2013-04-16 13:03:00,
2013-04-16 09:06:00,78.9,73.0,30.10,East,96,10.5,10.5,83,0.00,,,0.00,TxWx,2013-04-16 13:06:00,
2013-04-16 09:07:00,78.9,73.0,30.10,East,96,10.5,10.5,83,0.00,,,0.00,TxWx,2013-04-16 13:07:00,
2013-04-16 09:11:00,78.7,73.0,30.11,East,96,11.1,12.4,83,0.00,,,0.00,TxWx,2013-04-16 13:11:00,
2013-04-16 09:12:00,78.3,72.0,30.11,East,96,11.1,11.8,83,0.00,,,0.00,TxWx,2013-04-16 13:12:00,
2013-04-16 09:13:00,78.4,72.0,30.11,ENE,73,11.8,11.8,83,0.00,,,0.00,TxWx,2013-04-16 13:13:00,
2013-04-16 09:14:00,78.5,72.0,30.11,ESE,118,11.1,11.1,83,0.00,,,0.00,TxWx,2013-04-16 13:14:00,
2013-04-16 09:16:00,78.6,73.0,30.11,East,96,8.0,8.0,83,0.00,,,0.00,TxWx,2013-04-16 13:16:00,
2013-04-16 09:19:00,78.8,73.0,30.10,East,96,13.6,14.9,83,0.00,,,0.00,TxWx,2013-04-16 13:19:00,
2013-04-16 09:20:00,78.9,73.0,30.11,East,96,10.5,10.5,83,0.00,,,0.00,TxWx,2013-04-16 13:20:00,
2013-04-16 09:21:00,78.7,73.0,30.11,ESE,118,12.4,12.4,83,0.00,,,0.00,TxWx,2013-04-16 13:21:00,
2013-04-16 09:23:00,79.0,73.0,30.11,East,96,9.3,10.5,83,0.00,,,0.00,TxWx,2013-04-16 13:23:00,
2013-04-16 09:25:00,79.0,73.0,30.11,East,96,9.9,11.8,82,0.00,,,0.00,TxWx,2013-04-16 13:25:00,
2013-04-16 09:27:00,79.2,73.0,30.11,NE,51,9.3,9.3,82,0.00,,,0.00,TxWx,2013-04-16 13:27:00,
2013-04-16 09:29:00,79.1,73.0,30.11,ENE,73,7.4,8.7,82,0.00,,,0.00,TxWx,2013-04-16 13:29:00,
2013-04-16 09:31:00,79.1,73.0,30.11,East,96,9.3,12.4,82,0.00,,,0.00,TxWx,2013-04-16 13:31:00,
2013-04-16 09:32:00,79.1,73.0,30.11,ESE,118,10.5,10.5,82,0.00,,,0.00,TxWx,2013-04-16 13:32:00,
2013-04-16 09:33:00,79.3,73.0,30.11,East,96,9.3,9.9,82,0.00,,,0.00,TxWx,2013-04-16 13:33:00,
2013-04-16 09:36:00,79.3,73.0,30.11,East,96,9.9,9.9,82,0.00,,,0.00,TxWx,2013-04-16 13:36:00,
2013-04-16 09:37:00,79.2,73.0,30.11,East,96,9.3,11.1,82,0.00,,,0.00,TxWx,2013-04-16 13:37:00,
2013-04-16 09:39:00,79.1,73.0,30.11,East,96,10.5,10.5,82,0.00,,,0.00,TxWx,2013-04-16 13:39:00,
2013-04-16 09:41:00,79.1,73.0,30.11,East,96,10.5,10.5,82,0.00,,,0.00,TxWx,2013-04-16 13:41:00,
2013-04-16 09:42:00,79.2,73.0,30.11,East,96,9.9,10.5,83,0.00,,,0.00,TxWx,2013-04-16 13:42:00,
2013-04-16 09:44:00,79.2,73.0,30.11,East,96,8.0,8.0,83,0.00,,,0.00,TxWx,2013-04-16 13:44:00,
2013-04-16 09:46:00,79.0,73.0,30.11,East,96,10.5,10.5,83,0.00,,,0.00,TxWx,2013-04-16 13:46:00,
2013-04-16 09:47:00,79.0,73.0,30.11,East,96,11.8,11.8,83,0.00,,,0.00,TxWx,2013-04-16 13:47:00,
2013-04-16 09:48:00,79.0,73.0,30.11,ESE,118,10.5,11.1,82,0.00,,,0.00,TxWx,2013-04-16 13:48:00,
2013-04-16 09:50:00,79.3,73.0,30.11,ENE,73,8.7,9.3,82,0.00,,,0.00,TxWx,2013-04-16 13:50:00,
2013-04-16 09:51:00,79.3,73.0,30.11,East,96,9.9,10.5,82,0.00,,,0.00,TxWx,2013-04-16 13:51:00,
2013-04-16 09:52:00,79.4,73.0,30.11,East,96,6.8,10.5,82,0.00,,,0.00,TxWx,2013-04-16 13:52:00,
2013-04-16 09:53:00,79.5,73.0,30.11,East,96,8.0,8.0,82,0.00,,,0.00,TxWx,2013-04-16 13:53:00,
2013-04-16 09:57:00,79.6,74.0,30.11,East,96,6.8,8.0,82,0.00,,,0.00,TxWx,2013-04-16 13:57:00,
2013-04-16 09:58:00,79.7,74.0,30.11,East,96,8.7,8.7,82,0.00,,,0.00,TxWx,2013-04-16 13:58:00,
2013-04-16 09:59:00,79.5,74.0,30.12,ENE,73,8.7,8.7,82,0.00,,,0.00,TxWx,2013-04-16 13:59:00,
2013-04-16 10:01:00,79.5,74.0,30.11,ESE,118,8.0,8.0,82,0.00,,,0.00,TxWx,2013-04-16 14:01:00,
2013-04-16 10:03:00,79.6,74.0,30.12,NE,51,6.8,7.4,82,0.00,,,0.00,TxWx,2013-04-16 14:03:00,
2013-04-16 10:04:00,79.6,74.0,30.12,East,96,9.3,9.3,82,0.00,,,0.00,TxWx,2013-04-16 14:04:00,
2013-04-16 10:05:00,79.7,74.0,30.12,East,96,6.8,7.4,82,0.00,,,0.00,TxWx,2013-04-16 14:05:00,
2013-04-16 10:06:00,79.7,74.0,30.12,East,96,9.3,9.3,82,0.00,,,0.00,TxWx,2013-04-16 14:06:00,
2013-04-16 10:08:00,79.8,74.0,30.12,East,96,10.5,10.5,82,0.00,,,0.00,TxWx,2013-04-16 14:08:00,
2013-04-16 10:10:00,79.7,74.0,30.12,East,96,10.5,10.5,82,0.00,,,0.00,TxWx,2013-04-16 14:10:00,
2013-04-16 10:11:00,79.7,74.0,30.12,ENE,73,8.7,8.7,82,0.00,,,0.00,TxWx,2013-04-16 14:11:00,
2013-04-16 10:12:00,79.8,74.0,30.12,East,96,9.3,9.3,82,0.00,,,0.00,TxWx,2013-04-16 14:12:00,
2013-04-16 10:16:00,79.5,74.0,30.12,East,96,11.1,11.1,82,0.00,,,0.00,TxWx,2013-04-16 14:16:00,
2013-04-16 10:17:00,79.3,73.0,30.12,East,96,10.5,10.5,82,0.00,,,0.00,TxWx,2013-04-16 14:17:00,
2013-04-16 10:20:00,79.5,74.0,30.12,ENE,73,7.4,8.7,82,0.00,,,0.00,TxWx,2013-04-16 14:20:00,
2013-04-16 10:22:00,79.4,73.0,30.12,East,96,9.9,9.9,82,0.00,,,0.00,TxWx,2013-04-16 14:22:00,
2013-04-16 10:23:00,79.3,73.0,30.12,East,96,8.0,10.5,82,0.00,,,0.00,TxWx,2013-04-16 14:23:00,
2013-04-16 10:24:00,79.1,73.0,30.12,East,96,11.1,11.1,82,0.00,,,0.00,TxWx,2013-04-16 14:24:00,
2013-04-16 10:26:00,79.2,73.0,30.12,East,96,12.4,12.4,82,0.00,,,0.00,TxWx,2013-04-16 14:26:00,
2013-04-16 10:27:00,79.3,73.0,30.12,ESE,118,7.4,7.4,82,0.00,,,0.00,TxWx,2013-04-16 14:27:00,
2013-04-16 10:29:00,79.2,73.0,30.12,East,96,12.4,12.4,82,0.00,,,0.00,TxWx,2013-04-16 14:29:00,
2013-04-16 10:30:00,79.3,73.0,30.12,ESE,118,9.3,9.3,82,0.00,,,0.00,TxWx,2013-04-16 14:30:00,
2013-04-16 10:31:00,79.3,73.0,30.12,East,96,11.1,11.1,82,0.00,,,0.00,TxWx,2013-04-16 14:31:00,
2013-04-16 10:33:00,79.2,73.0,30.12,East,96,11.1,13.0,82,0.00,,,0.00,TxWx,2013-04-16 14:33:00,
2013-04-16 10:35:00,79.1,73.0,30.12,East,96,10.5,10.5,82,0.00,,,0.00,TxWx,2013-04-16 14:35:00,
2013-04-16 10:36:00,79.3,73.0,30.13,ESE,118,11.1,11.1,82,0.00,,,0.00,TxWx,2013-04-16 14:36:00,
2013-04-16 10:38:00,79.3,73.0,30.12,East,96,11.1,11.1,81,0.00,,,0.00,TxWx,2013-04-16 14:38:00,
2013-04-16 10:39:00,79.4,73.0,30.12,ESE,118,9.3,9.3,82,0.00,,,0.00,TxWx,2013-04-16 14:39:00,
2013-04-16 10:41:00,79.3,73.0,30.13,East,96,12.4,12.4,81,0.00,,,0.00,TxWx,2013-04-16 14:41:00,
2013-04-16 10:42:00,79.1,73.0,30.13,East,96,10.5,11.1,81,0.00,,,0.00,TxWx,2013-04-16 14:42:00,
2013-04-16 10:45:00,79.5,74.0,30.13,East,96,11.8,11.8,81,0.00,,,0.00,TxWx,2013-04-16 14:45:00,
2013-04-16 10:46:00,79.3,73.0,30.13,ESE,118,9.9,11.1,81,0.00,,,0.00,TxWx,2013-04-16 14:46:00,
2013-04-16 10:47:00,79.3,73.0,30.12,East,96,11.8,11.8,81,0.00,,,0.00,TxWx,2013-04-16 14:47:00,
2013-04-16 10:48:00,79.6,74.0,30.13,East,96,9.3,9.3,81,0.00,,,0.00,TxWx,2013-04-16 14:48:00,
2013-04-16 10:51:00,79.4,73.0,30.13,East,96,9.9,9.9,82,0.00,,,0.00,TxWx,2013-04-16 14:51:00,
2013-04-16 10:52:00,79.2,73.0,30.13,East,96,12.4,12.4,82,0.00,,,0.00,TxWx,2013-04-16 14:52:00,
2013-04-16 10:53:00,79.4,73.0,30.13,East,96,9.9,10.5,82,0.00,,,0.00,TxWx,2013-04-16 14:53:00,
2013-04-16 10:55:00,79.5,73.0,30.13,ESE,118,9.3,9.3,82,0.00,,,0.00,TxWx,2013-04-16 14:55:00,
2013-04-16 10:57:00,79.2,72.0,30.13,East,96,11.8,12.4,81,0.00,,,0.00,TxWx,2013-04-16 14:57:00,
2013-04-16 11:01:00,79.6,73.0,30.13,ENE,73,9.9,11.1,81,0.00,,,0.00,TxWx,2013-04-16 15:01:00,
2013-04-16 11:02:00,79.7,73.0,30.13,East,96,10.5,10.5,81,0.00,,,0.00,TxWx,2013-04-16 15:02:00,
2013-04-16 11:04:00,79.7,74.0,30.13,East,96,9.9,10.5,81,0.00,,,0.00,TxWx,2013-04-16 15:04:00,
2013-04-16 11:05:00,79.6,74.0,30.13,ENE,73,6.8,6.8,81,0.00,,,0.00,TxWx,2013-04-16 15:05:00,
2013-04-16 11:09:00,79.2,73.0,30.13,East,96,10.5,11.1,81,0.00,,,0.00,TxWx,2013-04-16 15:09:00,
2013-04-16 11:10:00,79.1,73.0,30.13,ESE,118,10.5,10.5,81,0.00,,,0.00,TxWx,2013-04-16 15:10:00,
2013-04-16 11:12:00,79.3,73.0,30.13,East,96,11.1,11.8,81,0.00,,,0.00,TxWx,2013-04-16 15:12:00,
2013-04-16 11:15:00,79.7,74.0,30.13,East,96,8.0,8.0,81,0.00,,,0.00,TxWx,2013-04-16 15:15:00,
2013-04-16 11:16:00,79.7,74.0,30.13,East,96,10.5,10.5,82,0.00,,,0.00,TxWx,2013-04-16 15:16:00,
2013-04-16 11:17:00,79.9,74.0,30.13,East,96,9.3,9.9,82,0.00,,,0.00,TxWx,2013-04-16 15:17:00,
2013-04-16 11:20:00,80.0,74.0,30.13,East,96,9.3,9.3,82,0.00,,,0.00,TxWx,2013-04-16 15:20:00,
2013-04-16 11:21:00,79.8,74.0,30.13,ESE,118,9.3,9.9,82,0.00,,,0.00,TxWx,2013-04-16 15:21:00,
2013-04-16 11:22:00,79.9,74.0,30.13,East,96,7.4,7.4,81,0.00,,,0.00,TxWx,2013-04-16 15:22:00,
2013-04-16 11:23:00,79.8,74.0,30.13,East,96,9.3,9.9,81,0.00,,,0.00,TxWx,2013-04-16 15:23:00,
2013-04-16 11:26:00,80.0,74.0,30.13,East,96,8.0,8.7,82,0.00,,,0.00,TxWx,2013-04-16 15:26:00,
2013-04-16 11:27:00,79.9,74.0,30.13,East,96,9.3,9.3,81,0.00,,,0.00,TxWx,2013-04-16 15:27:00,
2013-04-16 11:28:00,79.8,74.0,30.13,East,96,9.9,9.9,81,0.00,,,0.00,TxWx,2013-04-16 15:28:00,
2013-04-16 11:31:00,79.9,74.0,30.13,ESE,118,7.4,8.7,81,0.00,,,0.00,TxWx,2013-04-16 15:31:00,
2013-04-16 11:32:00,80.0,74.0,30.13,ENE,73,8.0,8.0,82,0.00,,,0.00,TxWx,2013-04-16 15:32:00,
2013-04-16 11:33:00,79.8,74.0,30.13,East,96,9.9,9.9,82,0.00,,,0.00,TxWx,2013-04-16 15:33:00,
2013-04-16 11:36:00,79.2,73.0,30.13,East,96,9.3,9.3,82,0.00,,,0.00,TxWx,2013-04-16 15:36:00,
2013-04-16 11:37:00,79.4,73.0,30.13,ESE,118,6.8,7.4,82,0.00,,,0.00,TxWx,2013-04-16 15:37:00,
2013-04-16 11:38:00,79.3,73.0,30.13,ESE,118,7.4,8.7,82,0.00,,,0.00,TxWx,2013-04-16 15:38:00,
2013-04-16 11:41:00,79.6,74.0,30.13,ESE,118,8.0,8.0,82,0.00,,,0.00,TxWx,2013-04-16 15:41:00,
2013-04-16 11:42:00,79.8,74.0,30.13,East,96,6.8,8.7,82,0.00,,,0.00,TxWx,2013-04-16 15:42:00,
2013-04-16 11:44:00,79.9,74.0,30.13,ESE,118,6.8,6.8,82,0.00,,,0.00,TxWx,2013-04-16 15:44:00,
2013-04-16 11:45:00,79.5,74.0,30.13,East,96,9.3,9.3,82,0.00,,,0.00,TxWx,2013-04-16 15:45:00,
2013-04-16 11:46:00,79.8,74.0,30.13,ESE,118,9.9,9.9,82,0.00,,,0.00,TxWx,2013-04-16 15:46:00,
2013-04-16 11:49:00,79.2,73.0,30.13,ESE,118,9.9,10.5,82,0.00,,,0.00,TxWx,2013-04-16 15:49:00,
2013-04-16 11:50:00,79.1,72.0,30.13,East,96,9.9,10.5,81,0.00,,,0.00,TxWx,2013-04-16 15:50:00,
2013-04-16 11:51:00,79.5,72.0,30.13,East,96,8.7,9.9,81,0.00,,,0.00,TxWx,2013-04-16 15:51:00,
2013-04-16 11:54:00,79.7,73.0,30.13,East,96,8.7,9.3,81,0.00,,,0.00,TxWx,2013-04-16 15:54:00,
2013-04-16 11:55:00,79.8,73.0,30.13,East,96,8.7,9.3,81,0.00,,,0.00,TxWx,2013-04-16 15:55:00,
2013-04-16 11:56:00,79.3,72.0,30.13,ESE,118,9.9,10.5,80,0.00,,,0.00,TxWx,2013-04-16 15:56:00,
2013-04-16 11:59:00,79.3,72.0,30.13,East,96,11.1,11.1,81,0.00,,,0.00,TxWx,2013-04-16 15:59:00,
2013-04-16 12:00:00,79.2,72.0,30.13,East,96,11.1,11.1,81,0.00,,,0.00,TxWx,2013-04-16 16:00:00,
2013-04-16 12:01:00,79.3,72.0,30.13,East,96,7.4,8.0,81,0.00,,,0.00,TxWx,2013-04-16 16:01:00,
2013-04-16 12:02:00,79.3,72.0,30.13,East,96,9.3,9.9,80,0.00,,,0.00,TxWx,2013-04-16 16:02:00,
2013-04-16 12:03:00,79.1,72.0,30.13,ESE,118,10.5,11.1,80,0.00,,,0.00,TxWx,2013-04-16 16:03:00,
2013-04-16 12:06:00,79.3,72.0,30.13,East,96,8.0,9.3,80,0.00,,,0.00,TxWx,2013-04-16 16:06:00,
2013-04-16 12:08:00,79.5,72.0,30.13,East,96,7.4,9.3,80,0.00,,,0.00,TxWx,2013-04-16 16:08:00,
2013-04-16 12:09:00,79.6,73.0,30.13,ESE,118,9.3,9.3,81,0.00,,,0.00,TxWx,2013-04-16 16:09:00,
2013-04-16 12:11:00,79.7,73.0,30.13,East,96,9.3,9.3,80,0.00,,,0.00,TxWx,2013-04-16 16:11:00,
2013-04-16 12:15:00,79.3,72.0,30.13,East,96,9.3,11.1,80,0.00,,,0.00,TxWx,2013-04-16 16:15:00,
2013-04-16 12:16:00,79.2,72.0,30.13,East,96,9.9,9.9,80,0.00,,,0.00,TxWx,2013-04-16 16:16:00,
2013-04-16 12:17:00,79.3,72.0,30.13,East,96,9.9,11.1,81,0.00,,,0.00,TxWx,2013-04-16 16:17:00,
2013-04-16 12:18:00,79.1,72.0,30.13,East,96,10.5,11.1,81,0.00,,,0.00,TxWx,2013-04-16 16:18:00,
2013-04-16 12:21:00,79.1,73.0,30.12,East,96,9.3,9.9,81,0.00,,,0.00,TxWx,2013-04-16 16:21:00,
2013-04-16 12:22:00,79.2,73.0,30.13,East,96,9.9,9.9,82,0.00,,,0.00,TxWx,2013-04-16 16:22:00,
2013-04-16 12:23:00,79.1,73.0,30.13,ESE,118,10.5,11.1,82,0.00,,,0.00,TxWx,2013-04-16 16:23:00,
2013-04-16 12:24:00,79.2,73.0,30.12,ENE,73,8.7,9.9,82,0.00,,,0.00,TxWx,2013-04-16 16:24:00,
2013-04-16 12:28:00,79.1,73.0,30.12,ESE,118,7.4,9.3,82,0.00,,,0.00,TxWx,2013-04-16 16:28:00,
2013-04-16 12:30:00,79.2,73.0,30.12,East,96,8.0,8.0,82,0.00,,,0.00,TxWx,2013-04-16 16:30:00,
2013-04-16 12:33:00,79.2,73.0,30.12,East,96,11.8,11.8,82,0.00,,,0.01,TxWx,2013-04-16 16:33:00,
2013-04-16 12:34:00,79.2,73.0,30.12,NE,51,10.5,13.6,82,0.00,,,0.01,TxWx,2013-04-16 16:34:00,
2013-04-16 12:36:00,77.7,71.0,30.12,ESE,118,13.6,14.9,80,0.00,,,0.01,TxWx,2013-04-16 16:36:00,
2013-04-16 12:37:00,77.7,71.0,30.12,ESE,118,14.9,14.9,80,0.00,,,0.01,TxWx,2013-04-16 16:37:00,
2013-04-16 12:39:00,77.4,71.0,30.12,East,96,13.0,13.6,81,0.00,,,0.01,TxWx,2013-04-16 16:39:00,
2013-04-16 12:40:00,77.4,71.0,30.12,ESE,118,12.4,12.4,81,0.00,,,0.01,TxWx,2013-04-16 16:40:00,
2013-04-16 12:41:00,77.2,71.0,30.12,SE,141,9.9,11.8,81,0.00,,,0.01,TxWx,2013-04-16 16:41:00,
2013-04-16 12:42:00,77.2,71.0,30.12,SE,141,11.1,13.0,81,0.06,,,0.01,TxWx,2013-04-16 16:42:00,
2013-04-16 12:44:00,77.2,71.0,30.12,ESE,118,9.9,9.9,82,0.06,,,0.01,TxWx,2013-04-16 16:44:00,
2013-04-16 12:45:00,77.2,71.0,30.13,East,96,10.5,11.1,82,0.06,,,0.01,TxWx,2013-04-16 16:45:00,
2013-04-16 12:46:00,77.0,71.0,30.12,East,96,9.3,9.3,82,0.06,,,0.01,TxWx,2013-04-16 16:46:00,
2013-04-16 12:49:00,77.3,71.0,30.12,SE,141,8.0,8.0,83,0.06,,,0.01,TxWx,2013-04-16 16:49:00,
2013-04-16 12:50:00,77.2,71.0,30.12,East,96,7.4,8.0,83,0.06,,,0.01,TxWx,2013-04-16 16:50:00,
2013-04-16 12:51:00,77.5,73.0,30.12,ESE,118,7.4,7.4,84,0.00,,,0.01,TxWx,2013-04-16 16:51:00,
2013-04-16 12:53:00,77.3,72.0,30.12,East,96,6.2,7.4,84,0.00,,,0.01,TxWx,2013-04-16 16:53:00,
2013-04-16 12:54:00,77.4,72.0,30.12,ESE,118,8.0,8.0,84,0.00,,,0.01,TxWx,2013-04-16 16:54:00,
2013-04-16 12:57:00,77.8,73.0,30.12,East,96,8.0,9.3,84,0.00,,,0.01,TxWx,2013-04-16 16:57:00,
2013-04-16 12:58:00,77.8,73.0,30.12,East,96,9.9,9.9,84,0.00,,,0.01,TxWx,2013-04-16 16:58:00,
2013-04-16 13:00:00,77.3,72.0,30.12,ESE,118,9.9,9.9,84,0.00,,,0.01,TxWx,2013-04-16 17:00:00,
2013-04-16 13:02:00,77.2,71.0,30.12,SE,141,7.4,7.4,83,0.00,,,0.01,TxWx,2013-04-16 17:02:00,
2013-04-16 13:03:00,77.2,71.0,30.12,SE,141,5.6,6.8,83,0.00,,,0.01,TxWx,2013-04-16 17:03:00,
2013-04-16 13:05:00,77.5,71.0,30.12,East,96,9.3,10.5,83,0.00,,,0.01,TxWx,2013-04-16 17:05:00,
2013-04-16 13:09:00,78.5,73.0,30.12,ESE,118,9.3,9.3,84,0.00,,,0.01,TxWx,2013-04-16 17:09:00,
2013-04-16 13:10:00,78.0,72.0,30.12,East,96,9.3,9.3,83,0.00,,,0.01,TxWx,2013-04-16 17:10:00,
2013-04-16 13:11:00,78.3,72.0,30.12,ESE,118,8.7,8.7,83,0.00,,,0.01,TxWx,2013-04-16 17:11:00,
2013-04-16 13:12:00,78.4,72.0,30.12,ESE,118,7.4,7.4,83,0.00,,,0.01,TxWx,2013-04-16 17:12:00,
2013-04-16 13:15:00,78.4,72.0,30.12,ESE,118,11.1,11.1,83,0.00,,,0.01,TxWx,2013-04-16 17:15:00,
2013-04-16 13:16:00,78.2,72.0,30.12,East,96,11.1,11.1,83,0.00,,,0.01,TxWx,2013-04-16 17:16:00,
2013-04-16 13:17:00,78.4,72.0,30.12,ESE,118,7.4,8.7,83,0.00,,,0.01,TxWx,2013-04-16 17:17:00,
2013-04-16 13:19:00,78.4,72.0,30.12,East,96,8.7,8.7,83,0.00,,,0.01,TxWx,2013-04-16 17:19:00,
2013-04-16 13:21:00,78.3,72.0,30.11,ESE,118,9.3,9.9,83,0.00,,,0.01,TxWx,2013-04-16 17:21:00,
2013-04-16 13:22:00,78.5,72.0,30.11,East,96,8.7,8.7,83,0.00,,,0.01,TxWx,2013-04-16 17:22:00,
2013-04-16 13:23:00,78.3,72.0,30.11,ESE,118,8.7,8.7,83,0.00,,,0.01,TxWx,2013-04-16 17:23:00,
2013-04-16 13:24:00,78.2,72.0,30.11,East,96,9.9,9.9,83,0.00,,,0.01,TxWx,2013-04-16 17:24:00,
2013-04-16 13:27:00,78.5,73.0,30.12,SE,141,8.7,8.7,83,0.00,,,0.01,TxWx,2013-04-16 17:27:00,
2013-04-16 13:28:00,78.5,72.0,30.11,ESE,118,5.0,5.0,83,0.00,,,0.01,TxWx,2013-04-16 17:28:00,
2013-04-16 13:29:00,78.6,73.0,30.12,ESE,118,6.8,7.4,83,0.00,,,0.01,TxWx,2013-04-16 17:29:00,
2013-04-16 13:31:00,78.5,72.0,30.12,ESE,118,7.4,7.4,83,0.00,,,0.01,TxWx,2013-04-16 17:31:00,
2013-04-16 13:32:00,78.8,73.0,30.11,East,96,5.6,6.2,83,0.00,,,0.01,TxWx,2013-04-16 17:32:00,
2013-04-16 13:33:00,78.8,73.0,30.11,East,96,6.2,6.2,83,0.00,,,0.01,TxWx,2013-04-16 17:33:00,
2013-04-16 13:34:00,78.9,73.0,30.11,ESE,118,6.8,6.8,83,0.00,,,0.01,TxWx,2013-04-16 17:34:00,
2013-04-16 13:37:00,78.8,73.0,30.12,East,96,11.8,11.8,83,0.00,,,0.01,TxWx,2013-04-16 17:37:00,
2013-04-16 13:39:00,78.6,73.0,30.12,ENE,73,9.9,11.1,82,0.00,,,0.01,TxWx,2013-04-16 17:39:00,
2013-04-16 13:40:00,78.8,73.0,30.11,East,96,8.7,8.7,82,0.00,,,0.01,TxWx,2013-04-16 17:40:00,
2013-04-16 13:42:00,78.6,73.0,30.11,East,96,8.7,8.7,82,0.00,,,0.01,TxWx,2013-04-16 17:42:00,
2013-04-16 13:44:00,78.7,73.0,30.11,ESE,118,6.2,6.2,82,0.00,,,0.01,TxWx,2013-04-16 17:44:00,
2013-04-16 13:45:00,78.5,73.0,30.11,ESE,118,11.1,11.1,83,0.00,,,0.01,TxWx,2013-04-16 17:45:00,
2013-04-16 13:46:00,78.4,72.0,30.11,East,96,9.9,10.5,82,0.00,,,0.01,TxWx,2013-04-16 17:46:00,
2013-04-16 13:48:00,78.3,72.0,30.11,ESE,118,9.9,9.9,82,0.00,,,0.01,TxWx,2013-04-16 17:48:00,
2013-04-16 13:49:00,78.5,72.0,30.11,East,96,8.0,8.0,82,0.00,,,0.01,TxWx,2013-04-16 17:49:00,
2013-04-16 13:52:00,78.1,72.0,30.11,ESE,118,9.3,9.3,82,0.00,,,0.01,TxWx,2013-04-16 17:52:00,
2013-04-16 13:53:00,78.2,72.0,30.11,ESE,118,8.7,8.7,82,0.00,,,0.01,TxWx,2013-04-16 17:53:00,
2013-04-16 13:55:00,78.5,72.0,30.11,East,96,7.4,8.0,83,0.00,,,0.01,TxWx,2013-04-16 17:55:00,
2013-04-16 13:57:00,78.3,72.0,30.11,ESE,118,8.0,8.7,83,0.00,,,0.01,TxWx,2013-04-16 17:57:00,
2013-04-16 13:58:00,78.5,73.0,30.11,ESE,118,5.6,5.6,83,0.00,,,0.01,TxWx,2013-04-16 17:58:00,
2013-04-16 13:59:00,78.5,72.0,30.11,East,96,8.0,8.0,83,0.00,,,0.01,TxWx,2013-04-16 17:59:00,
2013-04-16 14:00:00,78.6,73.0,30.11,ENE,73,11.1,11.1,83,0.00,,,0.01,TxWx,2013-04-16 18:00:00,
2013-04-16 14:02:00,78.7,73.0,30.11,ENE,73,8.7,8.7,83,0.00,,,0.01,TxWx,2013-04-16 18:02:00,
2013-04-16 14:04:00,78.9,73.0,30.11,ENE,73,11.1,11.1,83,0.00,,,0.01,TxWx,2013-04-16 18:04:00,
2013-04-16 14:05:00,79.1,73.0,30.11,ENE,73,8.7,9.3,83,0.00,,,0.01,TxWx,2013-04-16 18:05:00,
2013-04-16 14:06:00,79.5,73.0,30.11,NE,51,8.0,9.9,83,0.00,,,0.01,TxWx,2013-04-16 18:06:00,
2013-04-16 14:08:00,79.8,74.0,30.11,East,96,5.0,6.2,83,0.00,,,0.01,TxWx,2013-04-16 18:08:00,
2013-04-16 14:09:00,80.3,74.0,30.11,ENE,73,7.4,8.0,83,0.00,,,0.01,TxWx,2013-04-16 18:09:00,
2013-04-16 14:10:00,80.4,74.0,30.11,East,96,8.0,8.7,83,0.00,,,0.01,TxWx,2013-04-16 18:10:00,
2013-04-16 14:11:00,80.2,74.0,30.11,ENE,73,9.3,9.3,82,0.00,,,0.01,TxWx,2013-04-16 18:11:00,
2013-04-16 14:12:00,80.4,74.0,30.11,NE,51,7.4,7.4,82,0.00,,,0.01,TxWx,2013-04-16 18:12:00,
2013-04-16 14:13:00,80.4,74.0,30.11,East,96,6.2,6.2,82,0.00,,,0.01,TxWx,2013-04-16 18:13:00,
2013-04-16 14:14:00,80.3,74.0,30.11,ENE,73,4.3,5.0,81,0.00,,,0.01,TxWx,2013-04-16 18:14:00,
2013-04-16 14:17:00,80.4,73.0,30.11,East,96,4.3,5.0,80,0.00,,,0.01,TxWx,2013-04-16 18:17:00,
2013-04-16 14:19:00,80.8,74.0,30.11,East,96,7.4,7.4,81,0.00,,,0.01,TxWx,2013-04-16 18:19:00,
2013-04-16 14:22:00,81.0,74.0,30.11,ENE,73,4.3,4.3,80,0.00,,,0.01,TxWx,2013-04-16 18:22:00,
2013-04-16 14:24:00,80.8,74.0,30.10,ESE,118,6.2,8.0,79,0.00,,,0.01,TxWx,2013-04-16 18:24:00,
2013-04-16 14:25:00,81.2,74.0,30.11,SE,141,5.6,5.6,79,0.00,,,0.01,TxWx,2013-04-16 18:25:00,
2013-04-16 14:26:00,81.0,74.0,30.11,East,96,5.0,6.2,79,0.00,,,0.01,TxWx,2013-04-16 18:26:00,
2013-04-16 14:28:00,81.3,74.0,30.11,East,96,5.6,6.2,79,0.00,,,0.01,TxWx,2013-04-16 18:28:00,
2013-04-16 14:31:00,81.0,73.0,30.10,ENE,73,6.2,6.2,78,0.00,,,0.01,TxWx,2013-04-16 18:31:00,
2013-04-16 14:32:00,81.5,73.0,30.10,East,96,3.1,3.7,78,0.00,,,0.01,TxWx,2013-04-16 18:32:00,
2013-04-16 14:34:00,81.3,73.0,30.10,NE,51,5.0,5.0,78,0.00,,,0.01,TxWx,2013-04-16 18:34:00,
2013-04-16 14:37:00,81.1,73.0,30.10,East,96,7.4,7.4,78,0.00,,,0.01,TxWx,2013-04-16 18:37:00,
2013-04-16 14:38:00,81.1,73.0,30.10,ESE,118,7.4,8.0,78,0.00,,,0.01,TxWx,2013-04-16 18:38:00,
2013-04-16 14:39:00,81.2,73.0,30.10,East,96,6.2,6.2,78,0.00,,,0.01,TxWx,2013-04-16 18:39:00,
2013-04-16 14:42:00,81.0,73.0,30.10,ENE,73,6.8,9.9,78,0.00,,,0.01,TxWx,2013-04-16 18:42:00,
2013-04-16 14:44:00,80.8,73.0,30.10,NE,51,6.2,8.0,77,0.00,,,0.01,TxWx,2013-04-16 18:44:00,
2013-04-16 14:45:00,81.0,73.0,30.09,NE,51,6.2,6.2,77,0.00,,,0.01,TxWx,2013-04-16 18:45:00,
2013-04-16 14:47:00,81.1,73.0,30.10,NE,51,7.4,8.0,78,0.00,,,0.01,TxWx,2013-04-16 18:47:00,
2013-04-16 14:50:00,81.2,73.0,30.10,East,96,8.7,9.3,78,0.00,,,0.01,TxWx,2013-04-16 18:50:00,
2013-04-16 14:51:00,81.3,73.0,30.10,NE,51,6.8,8.0,78,0.00,,,0.01,TxWx,2013-04-16 18:51:00,
2013-04-16 14:52:00,81.3,73.0,30.10,SE,141,6.2,8.7,78,0.00,,,0.01,TxWx,2013-04-16 18:52:00,
2013-04-16 14:53:00,81.3,73.0,30.09,NE,51,8.0,8.7,78,0.00,,,0.01,TxWx,2013-04-16 18:53:00,
2013-04-16 14:55:00,81.5,73.0,30.10,North,6,3.7,3.7,78,0.00,,,0.01,TxWx,2013-04-16 18:55:00,
2013-04-16 14:56:00,81.5,73.0,30.10,NNE,28,4.3,4.3,78,0.00,,,0.01,TxWx,2013-04-16 18:56:00,
2013-04-16 14:57:00,81.3,73.0,30.10,ENE,73,3.7,4.3,78,0.00,,,0.01,TxWx,2013-04-16 18:57:00,
2013-04-16 14:58:00,81.4,73.0,30.10,East,96,5.0,5.6,78,0.00,,,0.01,TxWx,2013-04-16 18:58:00,
2013-04-16 15:01:00,81.3,73.0,30.09,NE,51,5.0,5.6,78,0.00,,,0.01,TxWx,2013-04-16 19:01:00,
2013-04-16 15:03:00,81.3,74.0,30.10,East,96,3.7,5.6,79,0.00,,,0.01,TxWx,2013-04-16 19:03:00,
2013-04-16 15:04:00,81.3,74.0,30.10,East,96,8.7,8.7,79,0.00,,,0.01,TxWx,2013-04-16 19:04:00,
2013-04-16 15:06:00,81.3,74.0,30.10,NNE,28,5.0,5.0,79,0.00,,,0.01,TxWx,2013-04-16 19:06:00,
2013-04-16 15:07:00,81.3,74.0,30.10,NNE,28,6.2,6.2,79,0.00,,,0.01,TxWx,2013-04-16 19:07:00,
2013-04-16 15:09:00,81.2,73.0,30.09,East,96,5.6,8.0,78,0.00,,,0.01,TxWx,2013-04-16 19:09:00,
2013-04-16 15:11:00,81.3,73.0,30.09,NNE,28,5.0,5.0,78,0.00,,,0.01,TxWx,2013-04-16 19:11:00,
2013-04-16 15:12:00,81.2,73.0,30.09,NW,321,6.2,6.2,78,0.00,,,0.01,TxWx,2013-04-16 19:12:00,
2013-04-16 15:13:00,81.1,73.0,30.09,NNE,28,6.2,6.8,78,0.00,,,0.01,TxWx,2013-04-16 19:13:00,
2013-04-16 15:15:00,81.2,74.0,30.09,East,96,6.8,7.4,79,0.00,,,0.01,TxWx,2013-04-16 19:15:00,
2013-04-16 15:18:00,81.5,75.0,30.09,ENE,73,4.3,5.0,79,0.00,,,0.01,TxWx,2013-04-16 19:18:00,
2013-04-16 15:19:00,81.4,74.0,30.09,East,96,5.0,6.8,79,0.00,,,0.01,TxWx,2013-04-16 19:19:00,
2013-04-16 15:20:00,81.1,73.0,30.09,SE,141,5.0,6.2,78,0.00,,,0.01,TxWx,2013-04-16 19:20:00,
2013-04-16 15:25:00,81.3,73.0,30.09,ENE,73,3.1,3.7,78,0.00,,,0.01,TxWx,2013-04-16 19:25:00,
2013-04-16 15:26:00,81.6,74.0,30.09,East,96,4.3,5.6,78,0.00,,,0.01,TxWx,2013-04-16 19:26:00,
2013-04-16 15:27:00,81.2,73.0,30.09,East,96,6.8,7.4,78,0.00,,,0.01,TxWx,2013-04-16 19:27:00,
2013-04-16 15:31:00,80.9,73.0,30.09,ENE,73,7.4,7.4,77,0.00,,,0.01,TxWx,2013-04-16 19:31:00,
2013-04-16 15:32:00,81.1,73.0,30.09,ENE,73,10.5,10.5,77,0.00,,,0.01,TxWx,2013-04-16 19:32:00,
2013-04-16 15:33:00,81.2,73.0,30.09,East,96,5.0,6.2,77,0.00,,,0.01,TxWx,2013-04-16 19:33:00,
2013-04-16 15:34:00,81.3,73.0,30.09,East,96,8.7,8.7,77,0.00,,,0.01,TxWx,2013-04-16 19:34:00,
2013-04-16 15:37:00,81.0,73.0,30.09,East,96,5.0,6.2,77,0.00,,,0.01,TxWx,2013-04-16 19:37:00,
2013-04-16 15:38:00,81.2,73.0,30.09,North,6,4.3,4.3,77,0.00,,,0.01,TxWx,2013-04-16 19:38:00,
2013-04-16 15:39:00,81.1,73.0,30.09,ENE,73,3.7,5.0,77,0.00,,,0.01,TxWx,2013-04-16 19:39:00,
2013-04-16 15:41:00,81.4,73.0,30.09,East,96,4.3,5.6,78,0.00,,,0.01,TxWx,2013-04-16 19:41:00,
2013-04-16 15:42:00,81.2,73.0,30.09,WNW,298,6.2,7.4,78,0.00,,,0.01,TxWx,2013-04-16 19:42:00,
2013-04-16 15:43:00,81.1,73.0,30.09,NE,51,6.8,8.7,77,0.00,,,0.01,TxWx,2013-04-16 19:43:00,
2013-04-16 15:44:00,81.1,73.0,30.09,East,96,11.1,11.1,78,0.00,,,0.01,TxWx,2013-04-16 19:44:00,
2013-04-16 15:46:00,81.0,73.0,30.08,ESE,118,3.7,3.7,77,0.00,,,0.01,TxWx,2013-04-16 19:46:00,
2013-04-16 15:47:00,81.1,73.0,30.08,NNE,28,3.1,4.3,78,0.00,,,0.01,TxWx,2013-04-16 19:47:00,
2013-04-16 15:48:00,81.0,73.0,30.08,East,96,8.0,8.0,78,0.00,,,0.01,TxWx,2013-04-16 19:48:00,
2013-04-16 15:49:00,81.0,73.0,30.08,NE,51,4.3,5.6,78,0.00,,,0.01,TxWx,2013-04-16 19:49:00,
2013-04-16 15:51:00,81.0,73.0,30.09,East,96,6.2,6.8,77,0.00,,,0.01,TxWx,2013-04-16 19:51:00,
2013-04-16 15:54:00,81.0,73.0,30.09,North,6,6.2,6.8,77,0.00,,,0.01,TxWx,2013-04-16 19:54:00,
2013-04-16 15:55:00,81.2,73.0,30.09,NNW,343,5.0,5.0,77,0.00,,,0.01,TxWx,2013-04-16 19:55:00,
2013-04-16 15:56:00,80.9,73.0,30.09,East,96,6.2,8.0,77,0.00,,,0.01,TxWx,2013-04-16 19:56:00,
2013-04-16 15:58:00,80.9,73.0,30.09,North,6,6.2,8.0,76,0.00,,,0.01,TxWx,2013-04-16 19:58:00,
2013-04-16 16:00:00,81.0,73.0,30.08,East,96,8.0,8.7,77,0.00,,,0.01,TxWx,2013-04-16 20:00:00,
2013-04-16 16:01:00,81.2,73.0,30.09,East,96,2.5,3.7,77,0.00,,,0.01,TxWx,2013-04-16 20:01:00,
2013-04-16 16:03:00,80.9,73.0,30.09,SE,141,5.0,5.0,76,0.00,,,0.01,TxWx,2013-04-16 20:03:00,
2013-04-16 16:04:00,80.8,73.0,30.09,North,6,8.7,9.3,76,0.00,,,0.01,TxWx,2013-04-16 20:04:00,
2013-04-16 16:05:00,80.8,72.0,30.09,North,6,6.2,6.2,76,0.00,,,0.01,TxWx,2013-04-16 20:05:00,
2013-04-16 16:07:00,81.0,73.0,30.08,ENE,73,6.2,6.2,77,0.00,,,0.01,TxWx,2013-04-16 20:07:00,
2013-04-16 16:10:00,80.8,73.0,30.08,ENE,73,9.3,9.3,76,0.00,,,0.01,TxWx,2013-04-16 20:10:00,
2013-04-16 16:11:00,81.1,73.0,30.08,NE,51,5.0,5.6,77,0.00,,,0.01,TxWx,2013-04-16 20:11:00,
2013-04-16 16:13:00,80.9,73.0,30.08,NNW,343,3.1,4.3,77,0.00,,,0.01,TxWx,2013-04-16 20:13:00,
2013-04-16 16:15:00,81.0,73.0,30.08,East,96,6.2,6.2,77,0.00,,,0.01,TxWx,2013-04-16 20:15:00,
2013-04-16 16:16:00,81.0,73.0,30.08,West,276,3.7,5.0,77,0.00,,,0.01,TxWx,2013-04-16 20:16:00,
2013-04-16 16:17:00,80.6,73.0,30.08,East,96,8.0,8.0,76,0.00,,,0.01,TxWx,2013-04-16 20:17:00,
2013-04-16 16:18:00,80.9,73.0,30.08,NE,51,3.7,4.3,77,0.00,,,0.01,TxWx,2013-04-16 20:18:00,
2013-04-16 16:19:00,80.7,73.0,30.08,ENE,73,7.4,7.4,77,0.00,,,0.01,TxWx,2013-04-16 20:19:00,
2013-04-16 16:22:00,80.7,73.0,30.08,East,96,4.3,5.0,77,0.00,,,0.01,TxWx,2013-04-16 20:22:00,
2013-04-16 16:23:00,80.8,73.0,30.08,ENE,73,7.4,7.4,78,0.00,,,0.01,TxWx,2013-04-16 20:23:00,
2013-04-16 16:24:00,80.8,73.0,30.08,ENE,73,4.3,4.3,78,0.00,,,0.01,TxWx,2013-04-16 20:24:00,
2013-04-16 16:27:00,80.6,73.0,30.08,NNE,28,7.4,8.7,77,0.00,,,0.01,TxWx,2013-04-16 20:27:00,
2013-04-16 16:28:00,80.7,73.0,30.08,SE,141,6.2,8.0,77,0.00,,,0.01,TxWx,2013-04-16 20:28:00,
2013-04-16 16:30:00,80.7,73.0,30.08,ENE,73,6.2,8.0,77,0.00,,,0.01,TxWx,2013-04-16 20:30:00,
2013-04-16 16:32:00,80.9,73.0,30.08,NE,51,5.6,6.2,77,0.00,,,0.01,TxWx,2013-04-16 20:32:00,
2013-04-16 16:33:00,80.8,73.0,30.08,ENE,73,3.7,5.6,77,0.00,,,0.01,TxWx,2013-04-16 20:33:00,
2013-04-16 16:35:00,80.9,73.0,30.08,NNE,28,6.8,8.0,77,0.00,,,0.01,TxWx,2013-04-16 20:35:00,
2013-04-16 16:36:00,81.1,73.0,30.08,East,96,8.7,8.7,78,0.00,,,0.01,TxWx,2013-04-16 20:36:00,
2013-04-16 16:37:00,80.7,73.0,30.08,NE,51,5.0,6.2,77,0.00,,,0.01,TxWx,2013-04-16 20:37:00,
2013-04-16 16:38:00,80.6,73.0,30.08,NE,51,6.8,8.7,77,0.00,,,0.01,TxWx,2013-04-16 20:38:00,
2013-04-16 16:41:00,80.6,73.0,30.08,NNE,28,6.2,6.8,78,0.00,,,0.01,TxWx,2013-04-16 20:41:00,
2013-04-16 16:42:00,80.8,73.0,30.08,ENE,73,5.6,5.6,78,0.00,,,0.01,TxWx,2013-04-16 20:42:00,
2013-04-16 16:43:00,80.7,73.0,30.08,ENE,73,8.0,8.0,78,0.00,,,0.01,TxWx,2013-04-16 20:43:00,
2013-04-16 16:46:00,80.2,72.0,30.08,NNW,343,5.6,6.8,78,0.00,,,0.01,TxWx,2013-04-16 20:46:00,
2013-04-16 16:47:00,80.2,72.0,30.08,East,96,7.4,7.4,78,0.00,,,0.01,TxWx,2013-04-16 20:47:00,
2013-04-16 16:48:00,80.3,72.0,30.08,East,96,8.0,8.0,78,0.00,,,0.01,TxWx,2013-04-16 20:48:00,
2013-04-16 16:52:00,80.2,72.0,30.08,ENE,73,6.8,6.8,78,0.00,,,0.01,TxWx,2013-04-16 20:52:00,
2013-04-16 16:53:00,80.4,72.0,30.08,North,6,4.3,5.6,78,0.00,,,0.01,TxWx,2013-04-16 20:53:00,
2013-04-16 16:54:00,80.4,72.0,30.08,ENE,73,8.7,8.7,78,0.00,,,0.01,TxWx,2013-04-16 20:54:00,
2013-04-16 16:55:00,80.2,72.0,30.07,NE,51,8.7,9.9,78,0.00,,,0.01,TxWx,2013-04-16 20:55:00,
2013-04-16 16:59:00,80.2,72.0,30.07,NE,51,8.7,9.9,78,0.00,,,0.01,TxWx,2013-04-16 20:59:00,
2013-04-16 17:00:00,80.2,72.0,30.07,ENE,73,11.1,11.1,78,0.00,,,0.01,TxWx,2013-04-16 21:00:00,
2013-04-16 17:01:00,79.9,72.0,30.07,ENE,73,8.7,8.7,77,0.00,,,0.01,TxWx,2013-04-16 21:01:00,
2013-04-16 17:03:00,79.9,72.0,30.07,ENE,73,10.5,13.0,77,0.00,,,0.01,TxWx,2013-04-16 21:03:00,
2013-04-16 17:04:00,80.0,72.0,30.08,North,6,9.3,10.5,77,0.00,,,0.01,TxWx,2013-04-16 21:04:00,
2013-04-16 17:06:00,80.3,72.0,30.08,ESE,118,5.6,8.7,78,0.00,,,0.01,TxWx,2013-04-16 21:06:00,
2013-04-16 17:08:00,80.3,72.0,30.08,NE,51,6.8,7.4,78,0.00,,,0.01,TxWx,2013-04-16 21:08:00,
2013-04-16 17:09:00,80.1,72.0,30.08,ENE,73,7.4,8.0,78,0.00,,,0.01,TxWx,2013-04-16 21:09:00,
2013-04-16 17:12:00,80.0,72.0,30.08,ENE,73,8.7,10.5,78,0.00,,,0.01,TxWx,2013-04-16 21:12:00,
2013-04-16 17:13:00,79.9,72.0,30.08,ENE,73,11.8,11.8,77,0.00,,,0.01,TxWx,2013-04-16 21:13:00,
2013-04-16 17:14:00,79.9,72.0,30.08,East,96,11.1,11.1,78,0.00,,,0.01,TxWx,2013-04-16 21:14:00,
2013-04-16 17:16:00,79.7,72.0,30.08,ENE,73,8.7,8.7,77,0.00,,,0.01,TxWx,2013-04-16 21:16:00,
2013-04-16 17:19:00,79.7,72.0,30.08,NNE,28,8.0,9.3,78,0.00,,,0.01,TxWx,2013-04-16 21:19:00,
2013-04-16 17:20:00,79.7,72.0,30.08,NW,321,5.0,5.6,78,0.00,,,0.01,TxWx,2013-04-16 21:20:00,
2013-04-16 17:21:00,79.7,72.0,30.08,NE,51,6.8,6.8,78,0.00,,,0.01,TxWx,2013-04-16 21:21:00,
2013-04-16 17:23:00,79.6,72.0,30.08,ENE,73,11.8,11.8,78,0.00,,,0.01,TxWx,2013-04-16 21:23:00,
2013-04-16 17:26:00,79.6,72.0,30.08,East,96,9.3,9.3,78,0.00,,,0.01,TxWx,2013-04-16 21:26:00,
2013-04-16 17:27:00,79.7,72.0,30.08,East,96,9.3,9.3,78,0.00,,,0.01,TxWx,2013-04-16 21:27:00,
2013-04-16 17:29:00,79.8,72.0,30.08,ENE,73,8.7,8.7,78,0.00,,,0.01,TxWx,2013-04-16 21:29:00,
2013-04-16 17:30:00,79.7,72.0,30.08,ESE,118,5.6,6.8,78,0.00,,,0.01,TxWx,2013-04-16 21:30:00,
2013-04-16 17:31:00,79.6,72.0,30.08,ESE,118,5.6,8.7,78,0.00,,,0.01,TxWx,2013-04-16 21:31:00,
2013-04-16 17:32:00,79.5,72.0,30.08,ENE,73,10.5,11.8,78,0.00,,,0.01,TxWx,2013-04-16 21:32:00,
2013-04-16 17:33:00,79.4,72.0,30.08,NE,51,6.2,7.4,78,0.00,,,0.01,TxWx,2013-04-16 21:33:00,
2013-04-16 17:34:00,79.3,72.0,30.08,NE,51,10.5,10.5,78,0.00,,,0.01,TxWx,2013-04-16 21:34:00,
2013-04-16 17:37:00,79.3,72.0,30.08,ENE,73,7.4,7.4,79,0.00,,,0.01,TxWx,2013-04-16 21:37:00,
2013-04-16 17:38:00,79.4,72.0,30.08,East,96,7.4,7.4,79,0.00,,,0.01,TxWx,2013-04-16 21:38:00,
2013-04-16 17:40:00,79.5,73.0,30.08,NE,51,7.4,9.3,79,0.00,,,0.01,TxWx,2013-04-16 21:40:00,
2013-04-16 17:41:00,79.4,72.0,30.08,ENE,73,8.0,8.0,79,0.00,,,0.01,TxWx,2013-04-16 21:41:00,
2013-04-16 17:42:00,79.1,72.0,30.08,East,96,5.6,5.6,79,0.00,,,0.01,TxWx,2013-04-16 21:42:00,
2013-04-16 17:43:00,79.3,72.0,30.08,ENE,73,5.6,6.2,79,0.00,,,0.01,TxWx,2013-04-16 21:43:00,
2013-04-16 17:44:00,79.3,72.0,30.08,NE,51,5.6,6.8,79,0.00,,,0.01,TxWx,2013-04-16 21:44:00,
2013-04-16 17:46:00,79.2,72.0,30.09,NE,51,7.4,9.9,79,0.00,,,0.01,TxWx,2013-04-16 21:46:00,
2013-04-16 17:48:00,79.3,72.0,30.08,North,6,6.2,8.7,79,0.00,,,0.01,TxWx,2013-04-16 21:48:00,
2013-04-16 17:49:00,79.3,72.0,30.08,NNE,28,9.9,11.8,79,0.00,,,0.01,TxWx,2013-04-16 21:49:00,
2013-04-16 17:50:00,79.3,72.0,30.08,NE,51,5.0,7.4,79,0.00,,,0.01,TxWx,2013-04-16 21:50:00,
2013-04-16 17:51:00,79.3,72.0,30.09,NE,51,5.0,8.0,79,0.00,,,0.01,TxWx,2013-04-16 21:51:00,
2013-04-16 17:52:00,79.5,73.0,30.09,East,96,6.8,9.3,79,0.00,,,0.01,TxWx,2013-04-16 21:52:00,
2013-04-16 17:54:00,79.5,73.0,30.09,North,6,5.0,5.0,79,0.00,,,0.01,TxWx,2013-04-16 21:54:00,
2013-04-16 17:56:00,79.4,72.0,30.08,NE,51,9.9,9.9,79,0.00,,,0.01,TxWx,2013-04-16 21:56:00,
2013-04-16 17:58:00,79.6,73.0,30.09,NE,51,4.3,4.3,79,0.00,,,0.01,TxWx,2013-04-16 21:58:00,
2013-04-16 18:00:00,79.5,72.0,30.08,NE,51,7.4,7.4,78,0.00,,,0.01,TxWx,2013-04-16 22:00:00,
2013-04-16 18:01:00,79.6,73.0,30.08,ENE,73,6.2,6.8,79,0.00,,,0.01,TxWx,2013-04-16 22:01:00,
2013-04-16 18:02:00,79.3,72.0,30.09,NE,51,13.0,13.0,79,0.00,,,0.01,TxWx,2013-04-16 22:02:00,
2013-04-16 18:04:00,79.3,72.0,30.08,East,96,4.3,6.8,79,0.00,,,0.01,TxWx,2013-04-16 22:04:00,
2013-04-16 18:07:00,79.3,72.0,30.08,SE,141,6.2,6.2,79,0.00,,,0.01,TxWx,2013-04-16 22:07:00,
2013-04-16 18:08:00,79.3,72.0,30.08,East,96,5.6,5.6,78,0.00,,,0.01,TxWx,2013-04-16 22:08:00,
2013-04-16 18:09:00,79.4,72.0,30.08,East,96,7.4,8.0,78,0.00,,,0.01,TxWx,2013-04-16 22:09:00,
2013-04-16 18:11:00,79.1,71.0,30.08,NE,51,5.6,8.0,78,0.00,,,0.01,TxWx,2013-04-16 22:11:00,
2013-04-16 18:12:00,79.1,71.0,30.08,East,96,9.9,9.9,78,0.00,,,0.01,TxWx,2013-04-16 22:12:00,
2013-04-16 18:13:00,79.1,71.0,30.08,ESE,118,7.4,7.4,78,0.00,,,0.01,TxWx,2013-04-16 22:13:00,
2013-04-16 18:15:00,79.3,72.0,30.08,East,96,8.7,9.9,78,0.00,,,0.01,TxWx,2013-04-16 22:15:00,
2013-04-16 18:17:00,78.8,71.0,30.08,ENE,73,12.4,12.4,78,0.00,,,0.01,TxWx,2013-04-16 22:17:00,
2013-04-16 18:19:00,78.8,71.0,30.08,NE,51,9.9,12.4,78,0.00,,,0.01,TxWx,2013-04-16 22:19:00,
2013-04-16 18:20:00,78.9,71.0,30.08,ENE,73,11.1,12.4,78,0.00,,,0.01,TxWx,2013-04-16 22:20:00,
2013-04-16 18:23:00,78.8,71.0,30.08,East,96,11.1,11.1,78,0.00,,,0.01,TxWx,2013-04-16 22:23:00,
2013-04-16 18:24:00,78.9,72.0,30.08,East,96,8.7,8.7,78,0.00,,,0.01,TxWx,2013-04-16 22:24:00,
2013-04-16 18:25:00,78.8,72.0,30.08,NNE,28,5.6,6.2,78,0.00,,,0.01,TxWx,2013-04-16 22:25:00,
2013-04-16 18:27:00,78.8,72.0,30.08,ESE,118,9.3,9.9,79,0.00,,,0.01,TxWx,2013-04-16 22:27:00,
2013-04-16 18:29:00,78.8,72.0,30.08,ESE,118,9.3,9.3,79,0.00,,,0.01,TxWx,2013-04-16 22:29:00,
2013-04-16 18:30:00,78.6,72.0,30.08,East,96,7.4,7.4,78,0.00,,,0.01,TxWx,2013-04-16 22:30:00,
2013-04-16 18:32:00,78.6,72.0,30.08,SE,141,5.0,5.0,78,0.00,,,0.01,TxWx,2013-04-16 22:32:00,
2013-04-16 18:33:00,78.5,72.0,30.09,East,96,8.0,8.7,79,0.00,,,0.01,TxWx,2013-04-16 22:33:00,
2013-04-16 18:35:00,78.6,72.0,30.09,NE,51,7.4,7.4,79,0.00,,,0.01,TxWx,2013-04-16 22:35:00,
2013-04-16 18:36:00,78.6,72.0,30.09,ENE,73,6.8,6.8,79,0.00,,,0.01,TxWx,2013-04-16 22:36:00,
2013-04-16 18:38:00,78.6,72.0,30.09,East,96,7.4,7.4,79,0.00,,,0.01,TxWx,2013-04-16 22:38:00,
2013-04-16 18:40:00,78.3,71.0,30.09,ESE,118,5.6,8.0,78,0.00,,,0.01,TxWx,2013-04-16 22:40:00,
2013-04-16 18:41:00,78.6,72.0,30.09,NE,51,5.6,6.2,78,0.00,,,0.01,TxWx,2013-04-16 22:41:00,
2013-04-16 18:42:00,78.5,71.0,30.09,ENE,73,5.6,5.6,78,0.00,,,0.01,TxWx,2013-04-16 22:42:00,
2013-04-16 18:46:00,78.5,71.0,30.09,NNE,28,4.3,5.6,78,0.00,,,0.01,TxWx,2013-04-16 22:46:00,
2013-04-16 18:48:00,78.5,72.0,30.09,NE,51,6.2,7.4,78,0.00,,,0.01,TxWx,2013-04-16 22:48:00,
2013-04-16 18:51:00,78.5,70.0,30.09,ENE,73,6.8,7.4,77,0.00,,,0.01,TxWx,2013-04-16 22:51:00,
2013-04-16 18:53:00,78.5,70.0,30.10,NE,51,9.3,9.3,77,0.00,,,0.01,TxWx,2013-04-16 22:53:00,
2013-04-16 18:54:00,78.6,71.0,30.09,NNE,28,6.2,9.3,77,0.00,,,0.01,TxWx,2013-04-16 22:54:00,
2013-04-16 18:55:00,78.5,70.0,30.09,NE,51,8.0,8.7,77,0.00,,,0.01,TxWx,2013-04-16 22:55:00,
2013-04-16 18:56:00,78.5,71.0,30.10,NNE,28,12.4,12.4,77,0.00,,,0.01,TxWx,2013-04-16 22:56:00,
2013-04-16 18:59:00,78.6,71.0,30.10,East,96,8.7,10.5,76,0.00,,,0.01,TxWx,2013-04-16 22:59:00,
2013-04-16 19:00:00,78.6,71.0,30.10,ENE,73,5.0,6.2,76,0.00,,,0.01,TxWx,2013-04-16 23:00:00,
2013-04-16 19:01:00,78.5,71.0,30.10,NE,51,10.5,11.1,76,0.00,,,0.01,TxWx,2013-04-16 23:01:00,
2013-04-16 19:05:00,78.6,71.0,30.10,NE,51,6.2,6.2,76,0.00,,,0.01,TxWx,2013-04-16 23:05:00,
2013-04-16 19:06:00,78.4,70.0,30.10,ENE,73,9.3,12.4,76,0.00,,,0.01,TxWx,2013-04-16 23:06:00,
2013-04-16 19:07:00,78.5,71.0,30.10,East,96,5.0,6.2,76,0.00,,,0.01,TxWx,2013-04-16 23:07:00,
2013-04-16 19:11:00,78.4,70.0,30.10,NE,51,6.2,6.2,77,0.00,,,0.01,TxWx,2013-04-16 23:11:00,
2013-04-16 19:12:00,78.3,70.0,30.10,NNE,28,9.3,9.3,77,0.00,,,0.01,TxWx,2013-04-16 23:12:00,
2013-04-16 19:14:00,78.3,70.0,30.10,NNE,28,8.0,8.0,77,0.00,,,0.01,TxWx,2013-04-16 23:14:00,
2013-04-16 19:17:00,78.1,70.0,30.10,NE,51,7.4,9.3,77,0.00,,,0.01,TxWx,2013-04-16 23:17:00,
2013-04-16 19:18:00,78.4,70.0,30.10,ENE,73,6.8,8.7,77,0.00,,,0.01,TxWx,2013-04-16 23:18:00,
2013-04-16 19:19:00,78.3,70.0,30.10,East,96,5.6,5.6,77,0.00,,,0.01,TxWx,2013-04-16 23:19:00,
2013-04-16 19:20:00,78.4,70.0,30.10,ESE,118,5.0,5.0,78,0.00,,,0.01,TxWx,2013-04-16 23:20:00,
2013-04-16 19:21:00,78.4,70.0,30.11,ENE,73,3.1,3.7,78,0.00,,,0.01,TxWx,2013-04-16 23:21:00,
2013-04-16 19:24:00,78.1,70.0,30.11,ENE,73,3.7,5.6,77,0.00,,,0.01,TxWx,2013-04-16 23:24:00,
2013-04-16 19:25:00,78.2,70.0,30.11,East,96,6.2,6.2,77,0.00,,,0.01,TxWx,2013-04-16 23:25:00,
2013-04-16 19:26:00,78.4,70.0,30.10,NNE,28,6.8,7.4,78,0.00,,,0.01,TxWx,2013-04-16 23:26:00,
2013-04-16 19:27:00,78.3,70.0,30.11,East,96,8.0,8.0,78,0.00,,,0.01,TxWx,2013-04-16 23:27:00,
2013-04-16 19:30:00,78.2,70.0,30.11,NE,51,10.5,10.5,77,0.00,,,0.01,TxWx,2013-04-16 23:30:00,
2013-04-16 19:31:00,78.2,70.0,30.11,ENE,73,5.0,5.0,77,0.00,,,0.01,TxWx,2013-04-16 23:31:00,
2013-04-16 19:34:00,78.2,70.0,30.11,East,96,3.1,3.7,77,0.00,,,0.01,TxWx,2013-04-16 23:34:00,
2013-04-16 19:37:00,78.0,70.0,30.11,East,96,5.0,6.8,77,0.00,,,0.01,TxWx,2013-04-16 23:37:00,
2013-04-16 19:39:00,78.0,70.0,30.11,NE,51,6.2,6.2,77,0.00,,,0.01,TxWx,2013-04-16 23:39:00,
2013-04-16 19:42:00,78.0,70.0,30.11,East,96,9.3,9.3,77,0.00,,,0.01,TxWx,2013-04-16 23:42:00,
2013-04-16 19:43:00,77.9,70.0,30.11,ENE,73,11.1,11.1,77,0.00,,,0.01,TxWx,2013-04-16 23:43:00,
2013-04-16 19:45:00,78.0,70.0,30.11,NE,51,9.3,9.3,76,0.00,,,0.01,TxWx,2013-04-16 23:45:00,
2013-04-16 19:48:00,78.0,70.0,30.11,East,96,6.2,6.8,76,0.00,,,0.01,TxWx,2013-04-16 23:48:00,
2013-04-16 19:49:00,78.0,70.0,30.11,ENE,73,5.0,5.6,76,0.00,,,0.01,TxWx,2013-04-16 23:49:00,
2013-04-16 19:51:00,78.0,70.0,30.11,ENE,73,4.3,5.6,76,0.00,,,0.01,TxWx,2013-04-16 23:51:00,
2013-04-16 19:52:00,78.1,70.0,30.11,ENE,73,5.6,6.2,76,0.00,,,0.01,TxWx,2013-04-16 23:52:00,
2013-04-16 19:53:00,78.2,70.0,30.11,East,96,5.0,5.6,76,0.00,,,0.01,TxWx,2013-04-16 23:53:00,
2013-04-16 19:54:00,78.2,70.0,30.11,NE,51,8.0,8.0,76,0.00,,,0.01,TxWx,2013-04-16 23:54:00,
2013-04-16 19:55:00,78.0,70.0,30.11,NNE,28,5.6,6.2,76,0.00,,,0.01,TxWx,2013-04-16 23:55:00,
2013-04-16 19:57:00,77.9,70.0,30.11,NE,51,11.8,11.8,76,0.00,,,0.01,TxWx,2013-04-16 23:57:00,
2013-04-16 19:58:00,78.1,70.0,30.11,NE,51,6.2,6.2,77,0.00,,,0.01,TxWx,2013-04-16 23:58:00,
2013-04-16 19:59:00,78.0,70.0,30.11,NNE,28,4.3,6.2,77,0.00,,,0.01,TxWx,2013-04-16 23:59:00,
2013-04-16 20:03:00,77.8,70.0,30.11,ENE,73,6.8,6.8,77,0.00,,,0.01,TxWx,2013-04-17 00:03:00,
2013-04-16 20:04:00,77.8,70.0,30.11,SE,141,6.8,6.8,77,0.00,,,0.01,TxWx,2013-04-17 00:04:00,
2013-04-16 20:05:00,77.8,70.0,30.11,SW,231,6.2,7.4,77,0.00,,,0.01,TxWx,2013-04-17 00:05:00,
2013-04-16 20:08:00,77.9,70.0,30.11,NNE,28,6.8,6.8,77,0.00,,,0.01,TxWx,2013-04-17 00:08:00,
2013-04-16 20:09:00,77.8,70.0,30.11,East,96,4.3,4.3,77,0.00,,,0.01,TxWx,2013-04-17 00:09:00,
2013-04-16 20:10:00,77.7,70.0,30.11,NNW,343,6.2,8.7,77,0.00,,,0.01,TxWx,2013-04-17 00:10:00,
2013-04-16 20:11:00,77.8,70.0,30.11,NE,51,6.2,7.4,77,0.00,,,0.01,TxWx,2013-04-17 00:11:00,
2013-04-16 20:13:00,77.8,70.0,30.11,East,96,5.6,7.4,78,0.00,,,0.01,TxWx,2013-04-17 00:13:00,
2013-04-16 20:15:00,77.8,71.0,30.11,ENE,73,8.7,10.5,78,0.00,,,0.01,TxWx,2013-04-17 00:15:00,
2013-04-16 20:16:00,78.0,71.0,30.11,NNE,28,8.0,11.1,78,0.00,,,0.01,TxWx,2013-04-17 00:16:00,
2013-04-16 20:17:00,77.9,71.0,30.11,ENE,73,5.6,6.2,78,0.00,,,0.01,TxWx,2013-04-17 00:17:00,
2013-04-16 20:20:00,77.8,71.0,30.11,ENE,73,8.0,8.7,78,0.00,,,0.01,TxWx,2013-04-17 00:20:00,
2013-04-16 20:21:00,77.7,71.0,30.11,East,96,5.0,5.0,78,0.00,,,0.01,TxWx,2013-04-17 00:21:00,
2013-04-16 20:22:00,77.7,71.0,30.11,East,96,6.8,8.0,78,0.00,,,0.01,TxWx,2013-04-17 00:22:00,
2013-04-16 20:23:00,77.7,70.0,30.11,SSE,163,4.3,5.6,78,0.00,,,0.01,TxWx,2013-04-17 00:23:00,
2013-04-16 20:27:00,77.7,71.0,30.11,ESE,118,6.2,6.2,78,0.00,,,0.01,TxWx,2013-04-17 00:27:00,
2013-04-16 20:28:00,77.6,71.0,30.11,NE,51,8.7,11.1,78,0.00,,,0.01,TxWx,2013-04-17 00:28:00,
2013-04-16 20:29:00,77.7,71.0,30.11,NE,51,5.6,6.8,78,0.00,,,0.01,TxWx,2013-04-17 00:29:00,
2013-04-16 20:30:00,77.6,71.0,30.11,East,96,4.3,5.6,78,0.00,,,0.01,TxWx,2013-04-17 00:30:00,
2013-04-16 20:33:00,77.5,71.0,30.11,NNE,28,8.0,11.8,78,0.00,,,0.01,TxWx,2013-04-17 00:33:00,
2013-04-16 20:35:00,77.9,71.0,30.12,NE,51,3.7,3.7,78,0.00,,,0.01,TxWx,2013-04-17 00:35:00,
2013-04-16 20:36:00,77.9,71.0,30.12,East,96,6.2,11.1,79,0.00,,,0.01,TxWx,2013-04-17 00:36:00,
2013-04-16 20:37:00,77.9,71.0,30.12,North,6,5.6,6.2,79,0.00,,,0.01,TxWx,2013-04-17 00:37:00,
2013-04-16 20:40:00,77.5,71.0,30.12,NE,51,9.3,9.3,78,0.00,,,0.01,TxWx,2013-04-17 00:40:00,
2013-04-16 20:41:00,77.5,70.0,30.12,East,96,8.0,10.5,78,0.00,,,0.01,TxWx,2013-04-17 00:41:00,
2013-04-16 20:42:00,77.8,71.0,30.12,NNE,28,6.2,6.2,78,0.00,,,0.01,TxWx,2013-04-17 00:42:00,
2013-04-16 20:47:00,77.6,71.0,30.12,East,96,5.0,6.8,78,0.00,,,0.01,TxWx,2013-04-17 00:47:00,
2013-04-16 20:48:00,77.7,71.0,30.12,NNE,28,8.7,8.7,78,0.00,,,0.01,TxWx,2013-04-17 00:48:00,
2013-04-16 20:49:00,77.6,71.0,30.12,NE,51,11.1,11.1,78,0.00,,,0.01,TxWx,2013-04-17 00:49:00,
2013-04-16 20:53:00,77.5,71.0,30.12,NE,51,10.5,13.0,78,0.00,,,0.01,TxWx,2013-04-17 00:53:00,
2013-04-16 20:54:00,77.5,69.0,30.12,NNE,28,6.8,6.8,78,0.00,,,0.01,TxWx,2013-04-17 00:54:00,
2013-04-16 20:55:00,77.6,71.0,30.12,East,96,6.8,8.7,78,0.00,,,0.01,TxWx,2013-04-17 00:55:00,
2013-04-16 20:58:00,77.6,71.0,30.12,North,6,9.9,9.9,79,0.00,,,0.01,TxWx,2013-04-17 00:58:00,
2013-04-16 20:59:00,77.6,71.0,30.12,East,96,7.4,8.7,79,0.00,,,0.01,TxWx,2013-04-17 00:59:00,
2013-04-16 21:00:00,77.5,71.0,30.12,ESE,118,6.2,6.2,78,0.00,,,0.01,TxWx,2013-04-17 01:00:00,
2013-04-16 21:03:00,77.7,71.0,30.12,SE,141,3.1,4.3,79,0.00,,,0.01,TxWx,2013-04-17 01:03:00,
2013-04-16 21:04:00,77.5,71.0,30.12,ENE,73,5.6,5.6,79,0.00,,,0.01,TxWx,2013-04-17 01:04:00,
2013-04-16 21:07:00,77.5,71.0,30.12,NE,51,8.0,8.0,79,0.00,,,0.01,TxWx,2013-04-17 01:07:00,
2013-04-16 21:08:00,77.4,70.0,30.12,NE,51,11.8,11.8,78,0.00,,,0.01,TxWx,2013-04-17 01:08:00,
2013-04-16 21:10:00,77.5,69.0,30.13,NNE,28,6.8,10.5,78,0.00,,,0.01,TxWx,2013-04-17 01:10:00,
2013-04-16 21:12:00,77.6,71.0,30.13,East,96,5.0,5.0,78,0.00,,,0.01,TxWx,2013-04-17 01:12:00,
2013-04-16 21:13:00,77.5,70.0,30.13,East,96,5.6,5.6,78,0.00,,,0.01,TxWx,2013-04-17 01:13:00,
2013-04-16 21:15:00,77.6,71.0,30.13,ESE,118,5.6,6.8,78,0.00,,,0.01,TxWx,2013-04-17 01:15:00,
2013-04-16 21:16:00,77.4,70.0,30.13,NE,51,6.8,6.8,78,0.00,,,0.01,TxWx,2013-04-17 01:16:00,
2013-04-16 21:17:00,77.5,70.0,30.13,ENE,73,5.6,5.6,78,0.00,,,0.01,TxWx,2013-04-17 01:17:00,
2013-04-16 21:18:00,77.3,70.0,30.13,East,96,6.2,6.2,78,0.00,,,0.01,TxWx,2013-04-17 01:18:00,
2013-04-16 21:19:00,77.4,70.0,30.13,East,96,8.7,8.7,78,0.00,,,0.01,TxWx,2013-04-17 01:19:00,
2013-04-16 21:21:00,77.5,71.0,30.12,ENE,73,8.0,8.0,78,0.00,,,0.01,TxWx,2013-04-17 01:21:00,
2013-04-16 21:22:00,77.5,71.0,30.12,NE,51,5.0,5.6,78,0.00,,,0.01,TxWx,2013-04-17 01:22:00,
2013-04-16 21:24:00,77.3,70.0,30.13,East,96,7.4,12.4,78,0.00,,,0.01,TxWx,2013-04-17 01:24:00,
2013-04-16 21:26:00,77.3,69.0,30.13,ENE,73,10.5,11.8,77,0.00,,,0.01,TxWx,2013-04-17 01:26:00,
2013-04-16 21:28:00,77.7,70.0,30.13,NNE,28,9.9,9.9,78,0.00,,,0.01,TxWx,2013-04-17 01:28:00,
2013-04-16 21:30:00,77.3,70.0,30.12,ENE,73,9.3,9.3,78,0.00,,,0.01,TxWx,2013-04-17 01:30:00,
2013-04-16 21:31:00,77.5,70.0,30.13,East,96,6.2,6.2,78,0.00,,,0.01,TxWx,2013-04-17 01:31:00,
2013-04-16 21:32:00,77.5,71.0,30.12,NE,51,6.2,8.7,78,0.00,,,0.01,TxWx,2013-04-17 01:32:00,
2013-04-16 21:33:00,77.3,70.0,30.13,NNE,28,10.5,13.0,78,0.00,,,0.01,TxWx,2013-04-17 01:33:00,
2013-04-16 21:35:00,77.5,71.0,30.13,East,96,6.2,6.2,78,0.00,,,0.01,TxWx,2013-04-17 01:35:00,
2013-04-16 21:37:00,77.3,70.0,30.13,North,6,6.2,7.4,79,0.00,,,0.01,TxWx,2013-04-17 01:37:00,
2013-04-16 21:38:00,77.4,70.0,30.13,North,6,5.6,6.8,79,0.00,,,0.01,TxWx,2013-04-17 01:38:00,
2013-04-16 21:39:00,77.3,70.0,30.13,ENE,73,11.8,11.8,79,0.00,,,0.01,TxWx,2013-04-17 01:39:00,
2013-04-16 21:41:00,77.3,70.0,30.13,NE,51,15.5,15.5,79,0.00,,,0.01,TxWx,2013-04-17 01:41:00,
2013-04-16 21:42:00,77.5,70.0,30.13,East,96,3.7,4.3,79,0.00,,,0.01,TxWx,2013-04-17 01:42:00,
2013-04-16 21:44:00,77.2,70.0,30.13,ENE,73,6.8,9.3,79,0.00,,,0.01,TxWx,2013-04-17 01:44:00,
2013-04-16 21:45:00,77.1,70.0,30.13,ENE,73,6.8,8.7,79,0.00,,,0.01,TxWx,2013-04-17 01:45:00,
2013-04-16 21:46:00,77.2,70.0,30.13,ENE,73,3.7,5.0,79,0.00,,,0.01,TxWx,2013-04-17 01:46:00,
2013-04-16 21:50:00,77.3,70.0,30.13,East,96,6.2,6.8,79,0.00,,,0.01,TxWx,2013-04-17 01:50:00,
2013-04-16 21:51:00,77.2,70.0,30.13,ENE,73,9.3,9.3,79,0.00,,,0.01,TxWx,2013-04-17 01:51:00,
2013-04-16 21:52:00,77.3,70.0,30.13,NNE,28,6.8,7.4,79,0.00,,,0.01,TxWx,2013-04-17 01:52:00,
2013-04-16 21:55:00,77.0,70.0,30.13,NE,51,9.3,9.3,78,0.00,,,0.01,TxWx,2013-04-17 01:55:00,
2013-04-16 21:57:00,77.2,70.0,30.13,ENE,73,8.0,9.3,78,0.00,,,0.01,TxWx,2013-04-17 01:57:00,
2013-04-16 21:58:00,77.3,70.0,30.13,NNE,28,10.5,10.5,78,0.00,,,0.01,TxWx,2013-04-17 01:58:00,
2013-04-16 22:01:00,77.6,71.0,30.13,East,96,5.6,7.4,78,0.00,,,0.01,TxWx,2013-04-17 02:01:00,
2013-04-16 22:03:00,77.2,69.0,30.13,NNE,28,6.2,6.2,78,0.00,,,0.01,TxWx,2013-04-17 02:03:00,
2013-04-16 22:04:00,77.2,69.0,30.13,ENE,73,5.6,7.4,78,0.00,,,0.01,TxWx,2013-04-17 02:04:00,
2013-04-16 22:06:00,77.4,70.0,30.13,ENE,73,5.0,6.2,78,0.00,,,0.01,TxWx,2013-04-17 02:06:00,
2013-04-16 22:07:00,77.5,70.0,30.13,East,96,9.3,9.3,78,0.00,,,0.01,TxWx,2013-04-17 02:07:00,
2013-04-16 22:09:00,77.3,70.0,30.13,SE,141,4.3,6.2,78,0.00,,,0.01,TxWx,2013-04-17 02:09:00,
2013-04-16 22:11:00,77.3,70.0,30.13,SE,141,6.8,10.5,79,0.00,,,0.01,TxWx,2013-04-17 02:11:00,
2013-04-16 22:12:00,77.1,70.0,30.13,ESE,118,8.7,9.3,79,0.00,,,0.01,TxWx,2013-04-17 02:12:00,
2013-04-16 22:13:00,77.2,70.0,30.13,NNE,28,5.0,5.6,79,0.00,,,0.01,TxWx,2013-04-17 02:13:00,
2013-04-16 22:14:00,77.3,70.0,30.13,NE,51,7.4,8.0,79,0.00,,,0.01,TxWx,2013-04-17 02:14:00,
2013-04-16 22:16:00,77.2,70.0,30.13,SSE,163,7.4,7.4,79,0.00,,,0.01,TxWx,2013-04-17 02:16:00,
2013-04-16 22:17:00,77.1,70.0,30.13,ENE,73,10.5,11.1,79,0.00,,,0.01,TxWx,2013-04-17 02:17:00,
2013-04-16 22:18:00,77.1,70.0,30.13,NE,51,10.5,10.5,78,0.00,,,0.01,TxWx,2013-04-17 02:18:00,
2013-04-16 22:19:00,77.3,70.0,30.13,North,6,5.0,7.4,78,0.00,,,0.01,TxWx,2013-04-17 02:19:00,
2013-04-16 22:20:00,77.2,70.0,30.13,NNE,28,9.9,11.8,78,0.00,,,0.01,TxWx,2013-04-17 02:20:00,
2013-04-16 22:21:00,77.3,70.0,30.14,NNE,28,9.9,9.9,78,0.00,,,0.01,TxWx,2013-04-17 02:21:00,
2013-04-16 22:24:00,77.3,70.0,30.14,NNE,28,6.8,6.8,79,0.00,,,0.01,TxWx,2013-04-17 02:24:00,
2013-04-16 22:25:00,77.3,70.0,30.14,NE,51,3.7,4.3,79,0.00,,,0.01,TxWx,2013-04-17 02:25:00,
2013-04-16 22:26:00,77.0,70.0,30.14,NNE,28,7.4,7.4,79,0.00,,,0.01,TxWx,2013-04-17 02:26:00,
2013-04-16 22:29:00,77.1,70.0,30.14,East,96,3.7,4.3,79,0.00,,,0.01,TxWx,2013-04-17 02:29:00,
2013-04-16 22:30:00,77.2,70.0,30.14,ENE,73,5.0,6.8,79,0.00,,,0.01,TxWx,2013-04-17 02:30:00,
2013-04-16 22:31:00,77.1,70.0,30.14,NE,51,8.7,8.7,79,0.00,,,0.01,TxWx,2013-04-17 02:31:00,
2013-04-16 22:32:00,77.2,70.0,30.14,ENE,73,6.8,6.8,79,0.00,,,0.01,TxWx,2013-04-17 02:32:00,
2013-04-16 22:34:00,77.0,70.0,30.14,ENE,73,7.4,8.0,79,0.00,,,0.01,TxWx,2013-04-17 02:34:00,
2013-04-16 22:37:00,77.1,70.0,30.14,East,96,8.0,9.9,79,0.00,,,0.01,TxWx,2013-04-17 02:37:00,
2013-04-16 22:39:00,77.1,70.0,30.14,NE,51,8.7,11.1,78,0.00,,,0.01,TxWx,2013-04-17 02:39:00,
2013-04-16 22:42:00,77.0,70.0,30.13,NE,51,8.7,9.9,78,0.00,,,0.01,TxWx,2013-04-17 02:42:00,
2013-04-16 22:43:00,77.0,70.0,30.13,NE,51,6.8,9.3,78,0.00,,,0.01,TxWx,2013-04-17 02:43:00,
2013-04-16 22:44:00,77.1,70.0,30.13,NE,51,9.9,9.9,78,0.00,,,0.01,TxWx,2013-04-17 02:44:00,
2013-04-16 22:47:00,77.0,69.0,30.13,North,6,8.7,9.3,78,0.00,,,0.01,TxWx,2013-04-17 02:47:00,
2013-04-16 22:48:00,76.9,69.0,30.13,East,96,10.5,10.5,77,0.00,,,0.01,TxWx,2013-04-17 02:48:00,
2013-04-16 22:50:00,77.1,69.0,30.13,East,96,4.3,5.0,77,0.00,,,0.01,TxWx,2013-04-17 02:50:00,
2013-04-16 22:53:00,77.3,69.0,30.13,East,96,6.8,6.8,78,0.00,,,0.01,TxWx,2013-04-17 02:53:00,
2013-04-16 22:54:00,77.2,69.0,30.13,ESE,118,4.3,5.0,78,0.00,,,0.01,TxWx,2013-04-17 02:54:00,
2013-04-16 22:55:00,77.1,70.0,30.13,East,96,9.9,9.9,78,0.00,,,0.01,TxWx,2013-04-17 02:55:00,
2013-04-16 22:56:00,77.0,69.0,30.13,ENE,73,7.4,8.0,78,0.00,,,0.01,TxWx,2013-04-17 02:56:00,
2013-04-16 22:59:00,76.9,69.0,30.13,NNE,28,3.7,4.3,78,0.00,,,0.01,TxWx,2013-04-17 02:59:00,
2013-04-16 23:00:00,76.8,69.0,30.13,ENE,73,8.0,8.0,78,0.00,,,0.01,TxWx,2013-04-17 03:00:00,
2013-04-16 23:01:00,77.0,70.0,30.13,East,96,6.8,9.9,78,0.00,,,0.01,TxWx,2013-04-17 03:01:00,
2013-04-16 23:02:00,76.9,70.0,30.13,ENE,73,10.5,10.5,78,0.00,,,0.01,TxWx,2013-04-17 03:02:00,
2013-04-16 23:04:00,77.1,70.0,30.13,NNE,28,6.2,6.2,78,0.00,,,0.01,TxWx,2013-04-17 03:04:00,
2013-04-16 23:05:00,76.9,70.0,30.13,SE,141,5.6,7.4,78,0.00,,,0.01,TxWx,2013-04-17 03:05:00,
2013-04-16 23:06:00,76.8,69.0,30.13,East,96,7.4,7.4,78,0.00,,,0.01,TxWx,2013-04-17 03:06:00,
2013-04-16 23:07:00,76.8,69.0,30.13,NNE,28,5.6,6.2,78,0.00,,,0.01,TxWx,2013-04-17 03:07:00,
2013-04-16 23:10:00,77.0,70.0,30.13,East,96,5.0,5.6,78,0.00,,,0.01,TxWx,2013-04-17 03:10:00,
2013-04-16 23:11:00,76.8,69.0,30.13,North,6,4.3,10.5,78,0.00,,,0.01,TxWx,2013-04-17 03:11:00,
2013-04-16 23:12:00,76.8,69.0,30.13,NNE,28,6.2,6.2,78,0.00,,,0.01,TxWx,2013-04-17 03:12:00,
2013-04-16 23:13:00,76.9,70.0,30.13,North,6,9.3,9.3,78,0.00,,,0.01,TxWx,2013-04-17 03:13:00,
2013-04-16 23:16:00,76.8,70.0,30.13,NNE,28,5.0,5.6,78,0.00,,,0.01,TxWx,2013-04-17 03:16:00,
2013-04-16 23:17:00,76.8,70.0,30.13,ENE,73,5.0,6.8,78,0.00,,,0.01,TxWx,2013-04-17 03:17:00,
2013-04-16 23:18:00,77.0,70.0,30.13,ENE,73,7.4,7.4,79,0.00,,,0.01,TxWx,2013-04-17 03:18:00,
2013-04-16 23:19:00,76.7,70.0,30.13,East,96,13.6,14.9,79,0.00,,,0.01,TxWx,2013-04-17 03:19:00,
2013-04-16 23:23:00,76.8,70.0,30.13,East,96,10.5,14.2,78,0.00,,,0.01,TxWx,2013-04-17 03:23:00,
2013-04-16 23:24:00,76.7,70.0,30.13,ENE,73,5.6,6.8,78,0.00,,,0.01,TxWx,2013-04-17 03:24:00,
2013-04-16 23:25:00,76.8,70.0,30.13,East,96,8.0,9.3,79,0.00,,,0.01,TxWx,2013-04-17 03:25:00,
2013-04-16 23:28:00,76.8,70.0,30.12,East,96,6.2,6.2,78,0.00,,,0.01,TxWx,2013-04-17 03:28:00,
2013-04-16 23:29:00,76.9,70.0,30.13,East,96,7.4,7.4,79,0.00,,,0.01,TxWx,2013-04-17 03:29:00,
2013-04-16 23:30:00,76.9,70.0,30.13,East,96,9.3,9.3,79,0.00,,,0.01,TxWx,2013-04-17 03:30:00,
2013-04-16 23:31:00,76.8,70.0,30.13,ENE,73,8.7,10.5,79,0.00,,,0.01,TxWx,2013-04-17 03:31:00,
2013-04-16 23:33:00,76.8,70.0,30.12,East,96,6.8,10.5,79,0.00,,,0.01,TxWx,2013-04-17 03:33:00,
2013-04-16 23:35:00,76.7,70.0,30.12,ENE,73,5.0,6.2,79,0.00,,,0.01,TxWx,2013-04-17 03:35:00,
2013-04-16 23:36:00,76.8,70.0,30.13,ENE,73,8.0,8.0,79,0.00,,,0.01,TxWx,2013-04-17 03:36:00,
2013-04-16 23:37:00,76.9,70.0,30.13,ESE,118,8.0,9.9,79,0.00,,,0.01,TxWx,2013-04-17 03:37:00,
2013-04-16 23:38:00,76.9,70.0,30.13,ESE,118,9.3,9.3,79,0.00,,,0.01,TxWx,2013-04-17 03:38:00,
2013-04-16 23:39:00,76.9,70.0,30.13,ENE,73,8.0,8.0,79,0.00,,,0.01,TxWx,2013-04-17 03:39:00,
2013-04-16 23:41:00,76.8,70.0,30.13,NNE,28,4.3,5.6,79,0.00,,,0.01,TxWx,2013-04-17 03:41:00,
2013-04-16 23:42:00,77.0,70.0,30.13,ENE,73,6.2,7.4,79,0.00,,,0.01,TxWx,2013-04-17 03:42:00,
2013-04-16 23:43:00,76.9,70.0,30.13,NE,51,10.5,14.2,80,0.00,,,0.01,TxWx,2013-04-17 03:43:00,
2013-04-16 23:45:00,76.7,70.0,30.13,ENE,73,9.9,9.9,79,0.00,,,0.01,TxWx,2013-04-17 03:45:00,
2013-04-16 23:47:00,76.8,70.0,30.13,ENE,73,6.8,6.8,80,0.00,,,0.01,TxWx,2013-04-17 03:47:00,
2013-04-16 23:50:00,76.7,70.0,30.13,NNE,28,4.3,5.0,80,0.00,,,0.01,TxWx,2013-04-17 03:50:00,
2013-04-16 23:51:00,76.9,70.0,30.13,East,96,5.6,7.4,80,0.00,,,0.01,TxWx,2013-04-17 03:51:00,
2013-04-16 23:53:00,76.8,70.0,30.13,NNW,343,4.3,6.8,80,0.00,,,0.01,TxWx,2013-04-17 03:53:00,
2013-04-16 23:54:00,76.7,70.0,30.13,ENE,73,7.4,7.4,80,0.00,,,0.01,TxWx,2013-04-17 03:54:00,
2013-04-16 23:55:00,76.8,70.0,30.13,East,96,9.3,11.1,80,0.00,,,0.01,TxWx,2013-04-17 03:55:00,
2013-04-16 23:58:00,76.7,70.0,30.12,ENE,73,7.4,7.4,80,0.00,,,0.01,TxWx,2013-04-17 03:58:00,